Time,TemperatureF,DewpointF,PressureIn,WindDirection,WindDirectionDegrees,WindSpeedMPH,WindSpeedGustMPH,Humidity,HourlyPrecipIn,Conditions,Clouds,dailyrainin,SoftwareType,DateUTC
2013-09-24 00:00:00,74.7,74.7,29.86,North,0,0.0,8.0,100,0.25,,---,2.35,VWS V14.01,2013-09-24 04:00:00,
2013-09-24 00:01:00,74.7,74.7,29.86,North,0,0.0,8.0,100,0.25,,---,2.35,VWS V14.01,2013-09-24 04:01:00,
2013-09-24 00:02:00,74.7,74.7,29.86,North,0,0.0,8.0,100,0.25,,---,2.35,VWS V14.01,2013-09-24 04:02:00,
2013-09-24 00:05:00,74.7,74.7,29.86,North,0,0.0,0.0,100,0.01,,---,0.00,VWS V14.01,2013-09-24 04:05:00,
2013-09-24 00:07:00,74.7,74.7,29.86,North,0,0.0,0.0,100,0.01,,---,0.00,VWS V14.01,2013-09-24 04:07:00,
2013-09-24 00:08:00,74.7,74.7,29.86,North,0,0.0,4.0,100,0.01,,---,0.00,VWS V14.01,2013-09-24 04:08:00,
2013-09-24 00:09:00,74.7,74.7,29.86,North,0,0.0,4.0,100,0.01,,---,0.00,VWS V14.01,2013-09-24 04:09:00,
2013-09-24 00:10:00,74.7,74.7,29.86,North,0,0.0,4.0,100,0.01,,---,0.00,VWS V14.01,2013-09-24 04:10:00,
2013-09-24 00:12:00,74.7,74.7,29.86,North,0,0.0,4.0,100,0.01,,---,0.00,VWS V14.01,2013-09-24 04:12:00,
2013-09-24 00:15:00,74.7,74.7,29.86,North,0,0.0,4.0,100,0.01,,---,0.00,VWS V14.01,2013-09-24 04:15:00,
2013-09-24 00:16:00,74.7,74.7,29.86,North,0,0.0,4.0,100,0.01,,---,0.00,VWS V14.01,2013-09-24 04:16:00,
2013-09-24 00:17:00,74.7,74.7,29.86,North,0,0.0,4.0,100,0.01,,---,0.00,VWS V14.01,2013-09-24 04:17:00,
2013-09-24 00:18:00,74.7,74.7,29.86,North,0,0.0,5.0,100,0.01,,---,0.00,VWS V14.01,2013-09-24 04:18:00,
2013-09-24 00:21:00,74.7,74.7,29.86,North,0,0.0,5.0,100,0.01,,---,0.00,VWS V14.01,2013-09-24 04:21:00,
2013-09-24 00:22:00,74.7,74.7,29.86,North,0,0.0,5.0,100,0.01,,---,0.00,VWS V14.01,2013-09-24 04:22:00,
2013-09-24 00:23:00,74.7,74.7,29.86,North,0,1.0,5.0,100,0.01,,---,0.00,VWS V14.01,2013-09-24 04:23:00,
2013-09-24 00:24:00,74.7,74.7,29.86,North,0,4.0,7.0,100,0.01,,---,0.00,VWS V14.01,2013-09-24 04:24:00,
2013-09-24 00:26:00,74.7,74.7,29.86,North,0,0.0,7.0,100,0.01,,---,0.00,VWS V14.01,2013-09-24 04:26:00,
2013-09-24 00:27:00,74.7,74.7,29.86,North,0,0.0,7.0,100,0.01,,---,0.00,VWS V14.01,2013-09-24 04:27:00,
2013-09-24 00:28:00,74.9,74.9,29.86,North,0,0.0,7.0,100,0.01,,---,0.00,VWS V14.01,2013-09-24 04:28:00,
2013-09-24 00:30:00,74.9,74.9,29.86,North,0,0.0,7.0,100,0.01,,---,0.00,VWS V14.01,2013-09-24 04:30:00,
2013-09-24 00:31:00,74.9,74.9,29.86,North,0,0.0,7.0,100,0.01,,---,0.00,VWS V14.01,2013-09-24 04:31:00,
2013-09-24 00:33:00,74.9,74.9,29.86,North,0,0.0,7.0,100,0.01,,---,0.00,VWS V14.01,2013-09-24 04:33:00,
2013-09-24 00:34:00,74.9,74.9,29.85,North,0,0.0,7.0,100,0.01,,---,0.00,VWS V14.01,2013-09-24 04:34:00,
2013-09-24 00:36:00,74.9,74.9,29.85,North,0,5.0,8.0,100,0.01,,---,0.00,VWS V14.01,2013-09-24 04:36:00,
2013-09-24 00:37:00,74.9,74.9,29.85,North,0,0.0,8.0,100,0.01,,---,0.00,VWS V14.01,2013-09-24 04:37:00,
2013-09-24 00:39:00,74.9,74.9,29.85,North,0,0.0,8.0,100,0.01,,---,0.00,VWS V14.01,2013-09-24 04:39:00,
2013-09-24 00:40:00,74.9,74.9,29.85,North,0,0.0,8.0,100,0.01,,---,0.00,VWS V14.01,2013-09-24 04:40:00,
2013-09-24 00:41:00,74.9,74.9,29.85,North,0,0.0,8.0,100,0.01,,---,0.00,VWS V14.01,2013-09-24 04:41:00,
2013-09-24 00:44:00,74.9,74.9,29.85,North,0,3.0,8.0,100,0.01,,---,0.00,VWS V14.01,2013-09-24 04:44:00,
2013-09-24 00:46:00,74.9,74.9,29.85,North,0,0.0,8.0,100,0.01,,---,0.00,VWS V14.01,2013-09-24 04:46:00,
2013-09-24 00:47:00,74.9,74.9,29.85,North,0,7.0,8.0,100,0.01,,---,0.00,VWS V14.01,2013-09-24 04:47:00,
2013-09-24 00:49:00,74.7,74.7,29.85,North,0,0.0,8.0,100,0.01,,---,0.00,VWS V14.01,2013-09-24 04:49:00,
2013-09-24 00:50:00,74.7,74.7,29.85,North,0,0.0,8.0,100,0.01,,---,0.00,VWS V14.01,2013-09-24 04:50:00,
2013-09-24 00:52:00,74.7,74.7,29.85,North,0,1.0,8.0,100,0.01,,---,0.00,VWS V14.01,2013-09-24 04:52:00,
2013-09-24 00:54:00,74.7,74.7,29.85,North,0,0.0,8.0,100,0.01,,---,0.00,VWS V14.01,2013-09-24 04:54:00,
2013-09-24 00:55:00,74.7,74.7,29.85,North,0,0.0,8.0,100,0.01,,---,0.00,VWS V14.01,2013-09-24 04:55:00,
2013-09-24 00:57:00,74.7,74.7,29.85,North,0,0.0,8.0,100,0.01,,---,0.00,VWS V14.01,2013-09-24 04:57:00,
2013-09-24 00:59:00,74.7,74.7,29.85,North,0,0.0,8.0,100,0.01,,---,0.00,VWS V14.01,2013-09-24 04:59:00,
2013-09-24 01:00:00,74.6,74.6,29.85,North,0,0.0,8.0,100,0.01,,---,0.00,VWS V14.01,2013-09-24 05:00:00,
2013-09-24 01:01:00,74.6,74.6,29.85,North,0,0.0,8.0,100,0.01,,---,0.00,VWS V14.01,2013-09-24 05:01:00,
2013-09-24 01:02:00,74.6,74.6,29.85,North,0,0.0,8.0,100,0.01,,---,0.00,VWS V14.01,2013-09-24 05:02:00,
2013-09-24 01:03:00,74.6,74.6,29.84,North,0,0.0,8.0,100,0.01,,---,0.00,VWS V14.01,2013-09-24 05:03:00,
2013-09-24 01:04:00,74.6,74.6,29.84,North,0,0.0,8.0,100,0.01,,---,0.00,VWS V14.01,2013-09-24 05:04:00,
2013-09-24 01:06:00,74.6,74.6,29.84,North,0,0.0,6.0,100,0.00,,---,0.00,VWS V14.01,2013-09-24 05:06:00,
2013-09-24 01:09:00,74.6,74.6,29.84,North,0,0.0,6.0,100,0.00,,---,0.00,VWS V14.01,2013-09-24 05:09:00,
2013-09-24 01:11:00,74.6,74.6,29.84,North,0,0.0,6.0,100,0.00,,---,0.00,VWS V14.01,2013-09-24 05:11:00,
2013-09-24 01:12:00,74.6,74.6,29.84,North,0,0.0,6.0,100,0.00,,---,0.00,VWS V14.01,2013-09-24 05:12:00,
2013-09-24 01:13:00,74.6,74.6,29.84,North,0,0.0,6.0,100,0.00,,---,0.00,VWS V14.01,2013-09-24 05:13:00,
2013-09-24 01:14:00,74.6,74.6,29.84,North,0,0.0,6.0,100,0.00,,---,0.00,VWS V14.01,2013-09-24 05:14:00,
2013-09-24 01:17:00,74.6,74.6,29.84,North,0,0.0,6.0,100,0.00,,---,0.00,VWS V14.01,2013-09-24 05:17:00,
2013-09-24 01:18:00,74.6,74.6,29.84,North,0,0.0,6.0,100,0.00,,---,0.00,VWS V14.01,2013-09-24 05:18:00,
2013-09-24 01:23:00,74.4,74.4,29.85,North,0,0.0,6.0,100,0.00,,---,0.00,VWS V14.01,2013-09-24 05:23:00,
2013-09-24 01:24:00,74.4,74.4,29.85,North,0,0.0,7.0,100,0.00,,---,0.00,VWS V14.01,2013-09-24 05:24:00,
2013-09-24 01:25:00,74.4,74.4,29.85,North,0,0.0,7.0,100,0.00,,---,0.00,VWS V14.01,2013-09-24 05:25:00,
2013-09-24 01:29:00,74.4,74.4,29.85,North,0,0.0,7.0,100,0.00,,---,0.00,VWS V14.01,2013-09-24 05:29:00,
2013-09-24 01:30:00,74.4,74.4,29.85,North,0,0.0,7.0,100,0.00,,---,0.00,VWS V14.01,2013-09-24 05:30:00,
2013-09-24 01:31:00,74.4,74.4,29.85,North,0,0.0,7.0,100,0.00,,---,0.00,VWS V14.01,2013-09-24 05:31:00,
2013-09-24 01:35:00,74.4,74.4,29.85,North,0,0.0,7.0,100,0.00,,---,0.00,VWS V14.01,2013-09-24 05:35:00,
2013-09-24 01:36:00,74.4,74.4,29.85,North,0,0.0,7.0,100,0.00,,---,0.00,VWS V14.01,2013-09-24 05:36:00,
2013-09-24 01:38:00,74.4,74.4,29.85,North,0,0.0,7.0,100,0.00,,---,0.00,VWS V14.01,2013-09-24 05:38:00,
2013-09-24 01:41:00,74.4,74.4,29.85,North,0,0.0,7.0,100,0.00,,---,0.00,VWS V14.01,2013-09-24 05:41:00,
2013-09-24 01:42:00,74.4,74.4,29.85,North,0,0.0,7.0,100,0.00,,---,0.00,VWS V14.01,2013-09-24 05:42:00,
2013-09-24 01:43:00,74.4,74.4,29.85,North,0,0.0,7.0,100,0.00,,---,0.00,VWS V14.01,2013-09-24 05:43:00,
2013-09-24 01:46:00,74.4,74.4,29.85,North,0,0.0,7.0,100,0.00,,---,0.00,VWS V14.01,2013-09-24 05:46:00,
2013-09-24 01:49:00,74.4,74.4,29.86,North,0,0.0,7.0,100,0.00,,---,0.00,VWS V14.01,2013-09-24 05:49:00,
2013-09-24 01:50:00,74.4,74.4,29.86,North,0,0.0,7.0,100,0.00,,---,0.00,VWS V14.01,2013-09-24 05:50:00,
2013-09-24 01:51:00,74.4,74.4,29.86,North,0,0.0,7.0,100,0.00,,---,0.00,VWS V14.01,2013-09-24 05:51:00,
2013-09-24 01:52:00,74.4,74.4,29.86,North,0,0.0,7.0,100,0.00,,---,0.00,VWS V14.01,2013-09-24 05:52:00,
2013-09-24 01:56:00,74.4,74.4,29.86,North,0,0.0,7.0,100,0.00,,---,0.00,VWS V14.01,2013-09-24 05:56:00,
2013-09-24 01:57:00,74.4,74.4,29.86,North,0,0.0,7.0,100,0.00,,---,0.00,VWS V14.01,2013-09-24 05:57:00,
2013-09-24 02:01:00,74.4,74.4,29.86,North,0,0.0,7.0,100,0.02,,---,0.02,VWS V14.01,2013-09-24 06:01:00,
2013-09-24 02:02:00,74.4,74.4,29.86,North,0,0.0,7.0,100,0.02,,---,0.02,VWS V14.01,2013-09-24 06:02:00,
2013-09-24 02:03:00,74.4,74.4,29.86,North,0,0.0,7.0,100,0.02,,---,0.02,VWS V14.01,2013-09-24 06:03:00,
2013-09-24 02:04:00,74.4,74.4,29.86,North,0,0.0,7.0,100,0.02,,---,0.02,VWS V14.01,2013-09-24 06:04:00,
2013-09-24 02:07:00,74.6,74.6,29.86,North,0,0.0,0.0,100,0.03,,---,0.03,VWS V14.01,2013-09-24 06:07:00,
2013-09-24 02:08:00,74.6,74.6,29.86,North,0,0.0,0.0,100,0.04,,---,0.04,VWS V14.01,2013-09-24 06:08:00,
2013-09-24 02:09:00,74.6,74.6,29.86,North,0,0.0,0.0,100,0.04,,---,0.04,VWS V14.01,2013-09-24 06:09:00,
2013-09-24 02:11:00,74.6,74.6,29.86,North,0,0.0,0.0,100,0.05,,---,0.05,VWS V14.01,2013-09-24 06:11:00,
2013-09-24 02:12:00,74.6,74.6,29.86,North,0,0.0,0.0,100,0.05,,---,0.05,VWS V14.01,2013-09-24 06:12:00,
2013-09-24 02:14:00,74.6,74.6,29.86,North,0,0.0,0.0,100,0.06,,---,0.06,VWS V14.01,2013-09-24 06:14:00,
2013-09-24 02:16:00,74.4,74.4,29.86,North,0,0.0,0.0,100,0.07,,---,0.07,VWS V14.01,2013-09-24 06:16:00,
2013-09-24 02:17:00,74.4,74.4,29.86,North,0,0.0,0.0,100,0.07,,---,0.07,VWS V14.01,2013-09-24 06:17:00,
2013-09-24 02:18:00,74.4,74.4,29.85,North,0,0.0,0.0,100,0.07,,---,0.07,VWS V14.01,2013-09-24 06:18:00,
2013-09-24 02:19:00,74.4,74.4,29.85,North,0,0.0,0.0,100,0.07,,---,0.07,VWS V14.01,2013-09-24 06:19:00,
2013-09-24 02:23:00,74.4,74.4,29.85,North,0,0.0,0.0,100,0.07,,---,0.07,VWS V14.01,2013-09-24 06:23:00,
2013-09-24 02:24:00,74.4,74.4,29.85,North,0,4.0,4.0,100,0.07,,---,0.07,VWS V14.01,2013-09-24 06:24:00,
2013-09-24 02:25:00,74.4,74.4,29.85,North,0,2.0,6.0,100,0.07,,---,0.07,VWS V14.01,2013-09-24 06:25:00,
2013-09-24 02:26:00,74.4,74.4,29.85,North,0,0.0,6.0,100,0.07,,---,0.07,VWS V14.01,2013-09-24 06:26:00,
2013-09-24 02:28:00,74.4,74.4,29.85,North,0,0.0,6.0,100,0.07,,---,0.07,VWS V14.01,2013-09-24 06:28:00,
2013-09-24 02:29:00,74.4,74.4,29.85,North,0,0.0,6.0,100,0.07,,---,0.07,VWS V14.01,2013-09-24 06:29:00,
2013-09-24 02:30:00,74.4,74.4,29.85,North,0,0.0,6.0,100,0.07,,---,0.07,VWS V14.01,2013-09-24 06:30:00,
2013-09-24 02:32:00,74.4,74.4,29.85,North,0,0.0,6.0,100,0.08,,---,0.08,VWS V14.01,2013-09-24 06:32:00,
2013-09-24 02:35:00,74.4,74.4,29.84,North,0,5.0,7.0,100,0.08,,---,0.08,VWS V14.01,2013-09-24 06:35:00,
2013-09-24 02:38:00,74.4,74.4,29.84,North,0,0.0,7.0,100,0.09,,---,0.09,VWS V14.01,2013-09-24 06:38:00,
2013-09-24 02:39:00,74.4,74.4,29.84,North,0,0.0,7.0,100,0.09,,---,0.09,VWS V14.01,2013-09-24 06:39:00,
2013-09-24 02:40:00,74.6,74.6,29.84,North,0,0.0,7.0,100,0.09,,---,0.09,VWS V14.01,2013-09-24 06:40:00,
2013-09-24 02:41:00,74.6,74.6,29.84,North,0,0.0,7.0,100,0.09,,---,0.09,VWS V14.01,2013-09-24 06:41:00,
2013-09-24 02:44:00,74.6,74.6,29.84,North,0,0.0,7.0,100,0.10,,---,0.10,VWS V14.01,2013-09-24 06:44:00,
2013-09-24 02:45:00,74.6,74.6,29.84,North,0,0.0,7.0,100,0.10,,---,0.10,VWS V14.01,2013-09-24 06:45:00,
2013-09-24 02:50:00,74.6,74.6,29.84,North,0,0.0,7.0,100,0.11,,---,0.11,VWS V14.01,2013-09-24 06:50:00,
2013-09-24 02:51:00,74.6,74.6,29.84,North,0,0.0,7.0,100,0.11,,---,0.11,VWS V14.01,2013-09-24 06:51:00,
2013-09-24 02:52:00,74.6,74.6,29.84,North,0,0.0,7.0,100,0.11,,---,0.11,VWS V14.01,2013-09-24 06:52:00,
2013-09-24 02:53:00,74.6,74.6,29.84,North,0,2.0,7.0,100,0.11,,---,0.11,VWS V14.01,2013-09-24 06:53:00,
2013-09-24 02:55:00,74.6,74.6,29.84,North,0,8.0,8.0,100,0.12,,---,0.12,VWS V14.01,2013-09-24 06:55:00,
2013-09-24 02:58:00,74.6,74.6,29.84,North,0,0.0,9.0,100,0.12,,---,0.12,VWS V14.01,2013-09-24 06:58:00,
2013-09-24 02:59:00,74.6,74.6,29.84,North,0,0.0,9.0,100,0.12,,---,0.12,VWS V14.01,2013-09-24 06:59:00,
2013-09-24 03:01:00,74.6,74.6,29.84,North,0,0.0,9.0,100,0.12,,---,0.12,VWS V14.01,2013-09-24 07:01:00,
2013-09-24 03:02:00,74.6,74.6,29.84,North,0,0.0,9.0,100,0.13,,---,0.13,VWS V14.01,2013-09-24 07:02:00,
2013-09-24 03:03:00,74.6,74.6,29.84,North,0,0.0,9.0,100,0.13,,---,0.13,VWS V14.01,2013-09-24 07:03:00,
2013-09-24 03:04:00,74.6,74.6,29.84,North,0,0.0,9.0,100,0.13,,---,0.13,VWS V14.01,2013-09-24 07:04:00,
2013-09-24 03:06:00,74.6,74.6,29.84,North,0,0.0,7.0,100,0.12,,---,0.14,VWS V14.01,2013-09-24 07:06:00,
2013-09-24 03:08:00,74.6,74.6,29.84,North,0,2.0,7.0,100,0.12,,---,0.14,VWS V14.01,2013-09-24 07:08:00,
2013-09-24 03:09:00,74.6,74.6,29.84,North,0,4.0,7.0,100,0.12,,---,0.14,VWS V14.01,2013-09-24 07:09:00,
2013-09-24 03:10:00,74.6,74.6,29.84,North,0,0.0,7.0,100,0.12,,---,0.14,VWS V14.01,2013-09-24 07:10:00,
2013-09-24 03:12:00,74.6,74.6,29.84,North,0,0.0,7.0,100,0.13,,---,0.15,VWS V14.01,2013-09-24 07:12:00,
2013-09-24 03:14:00,74.6,74.6,29.84,North,0,0.0,7.0,100,0.14,,---,0.16,VWS V14.01,2013-09-24 07:14:00,
2013-09-24 03:15:00,74.6,74.6,29.84,North,0,4.0,7.0,100,0.14,,---,0.16,VWS V14.01,2013-09-24 07:15:00,
2013-09-24 03:16:00,74.6,74.6,29.84,North,0,0.0,7.0,100,0.14,,---,0.16,VWS V14.01,2013-09-24 07:16:00,
2013-09-24 03:17:00,74.6,74.6,29.84,North,0,0.0,7.0,100,0.14,,---,0.16,VWS V14.01,2013-09-24 07:17:00,
2013-09-24 03:20:00,74.6,74.6,29.83,North,0,0.0,7.0,100,0.15,,---,0.17,VWS V14.01,2013-09-24 07:20:00,
2013-09-24 03:21:00,74.6,74.6,29.83,North,0,0.0,7.0,100,0.16,,---,0.18,VWS V14.01,2013-09-24 07:21:00,
2013-09-24 03:22:00,74.6,74.6,29.83,North,0,0.0,7.0,100,0.16,,---,0.18,VWS V14.01,2013-09-24 07:22:00,
2013-09-24 03:23:00,74.6,74.6,29.83,North,0,5.0,7.0,100,0.16,,---,0.18,VWS V14.01,2013-09-24 07:23:00,
2013-09-24 03:26:00,74.6,74.6,29.83,North,0,0.0,7.0,100,0.17,,---,0.19,VWS V14.01,2013-09-24 07:26:00,
2013-09-24 03:27:00,74.6,74.6,29.83,North,0,0.0,7.0,100,0.17,,---,0.19,VWS V14.01,2013-09-24 07:27:00,
2013-09-24 03:28:00,74.6,74.6,29.83,North,0,0.0,7.0,100,0.18,,---,0.20,VWS V14.01,2013-09-24 07:28:00,
2013-09-24 03:31:00,74.6,74.6,29.83,North,0,0.0,7.0,100,0.19,,---,0.21,VWS V14.01,2013-09-24 07:31:00,
2013-09-24 03:32:00,74.6,74.6,29.83,North,0,0.0,7.0,100,0.19,,---,0.21,VWS V14.01,2013-09-24 07:32:00,
2013-09-24 03:35:00,74.6,74.6,29.83,North,0,0.0,7.0,100,0.20,,---,0.22,VWS V14.01,2013-09-24 07:35:00,
2013-09-24 03:37:00,74.6,74.6,29.83,North,0,0.0,7.0,100,0.20,,---,0.22,VWS V14.01,2013-09-24 07:37:00,
2013-09-24 03:38:00,74.6,74.6,29.83,North,0,0.0,7.0,100,0.21,,---,0.23,VWS V14.01,2013-09-24 07:38:00,
2013-09-24 03:39:00,74.6,74.6,29.83,North,0,0.0,7.0,100,0.21,,---,0.23,VWS V14.01,2013-09-24 07:39:00,
2013-09-24 03:40:00,74.6,74.6,29.83,North,0,0.0,7.0,100,0.22,,---,0.24,VWS V14.01,2013-09-24 07:40:00,
2013-09-24 03:42:00,74.6,74.6,29.83,North,0,0.0,7.0,100,0.22,,---,0.24,VWS V14.01,2013-09-24 07:42:00,
2013-09-24 03:43:00,74.6,74.6,29.83,North,0,0.0,7.0,100,0.22,,---,0.24,VWS V14.01,2013-09-24 07:43:00,
2013-09-24 03:45:00,74.6,74.6,29.83,North,0,0.0,7.0,100,0.23,,---,0.25,VWS V14.01,2013-09-24 07:45:00,
2013-09-24 03:46:00,74.6,74.6,29.83,North,0,0.0,7.0,100,0.24,,---,0.26,VWS V14.01,2013-09-24 07:46:00,
2013-09-24 03:48:00,74.6,74.6,29.83,North,0,0.0,7.0,100,0.24,,---,0.26,VWS V14.01,2013-09-24 07:48:00,
2013-09-24 03:50:00,74.6,74.6,29.82,North,0,0.0,7.0,100,0.25,,---,0.27,VWS V14.01,2013-09-24 07:50:00,
2013-09-24 03:51:00,74.6,74.6,29.82,North,0,0.0,7.0,100,0.25,,---,0.27,VWS V14.01,2013-09-24 07:51:00,
2013-09-24 03:52:00,74.6,74.6,29.82,North,0,2.0,7.0,100,0.25,,---,0.27,VWS V14.01,2013-09-24 07:52:00,
2013-09-24 03:54:00,74.6,74.6,29.82,North,0,0.0,7.0,100,0.26,,---,0.28,VWS V14.01,2013-09-24 07:54:00,
2013-09-24 03:56:00,74.6,74.6,29.82,North,0,0.0,7.0,100,0.26,,---,0.28,VWS V14.01,2013-09-24 07:56:00,
2013-09-24 03:58:00,74.6,74.6,29.82,North,0,0.0,7.0,100,0.27,,---,0.29,VWS V14.01,2013-09-24 07:58:00,
2013-09-24 03:59:00,74.6,74.6,29.82,North,0,1.0,7.0,100,0.27,,---,0.29,VWS V14.01,2013-09-24 07:59:00,
2013-09-24 04:00:00,74.6,74.6,29.82,North,0,0.0,7.0,100,0.27,,---,0.29,VWS V14.01,2013-09-24 08:00:00,
2013-09-24 04:02:00,74.6,74.6,29.82,North,0,1.0,7.0,100,0.27,,---,0.29,VWS V14.01,2013-09-24 08:02:00,
2013-09-24 04:03:00,74.6,74.6,29.82,North,0,0.0,7.0,100,0.28,,---,0.30,VWS V14.01,2013-09-24 08:03:00,
2013-09-24 04:04:00,74.6,74.6,29.82,North,0,0.0,0.0,100,0.17,,---,0.30,VWS V14.01,2013-09-24 08:04:00,
2013-09-24 04:05:00,74.6,74.6,29.82,North,0,0.0,0.0,100,0.17,,---,0.30,VWS V14.01,2013-09-24 08:05:00,
2013-09-24 04:07:00,74.6,74.6,29.82,North,0,0.0,0.0,100,0.17,,---,0.30,VWS V14.01,2013-09-24 08:07:00,
2013-09-24 04:09:00,74.6,74.6,29.82,North,0,0.0,0.0,100,0.17,,---,0.30,VWS V14.01,2013-09-24 08:09:00,
2013-09-24 04:11:00,74.6,74.6,29.82,North,0,0.0,0.0,100,0.17,,---,0.30,VWS V14.01,2013-09-24 08:11:00,
2013-09-24 04:13:00,74.6,74.6,29.82,North,0,0.0,0.0,100,0.17,,---,0.30,VWS V14.01,2013-09-24 08:13:00,
2013-09-24 04:14:00,74.6,74.6,29.82,North,0,0.0,0.0,100,0.17,,---,0.30,VWS V14.01,2013-09-24 08:14:00,
2013-09-24 04:15:00,74.6,74.6,29.82,North,0,0.0,0.0,100,0.17,,---,0.30,VWS V14.01,2013-09-24 08:15:00,
2013-09-24 04:16:00,74.6,74.6,29.82,North,0,0.0,0.0,100,0.17,,---,0.30,VWS V14.01,2013-09-24 08:16:00,
2013-09-24 04:19:00,74.6,74.6,29.82,North,0,0.0,0.0,100,0.17,,---,0.30,VWS V14.01,2013-09-24 08:19:00,
2013-09-24 04:20:00,74.6,74.6,29.82,North,0,0.0,0.0,100,0.17,,---,0.30,VWS V14.01,2013-09-24 08:20:00,
2013-09-24 04:21:00,74.6,74.6,29.82,North,0,0.0,0.0,100,0.17,,---,0.30,VWS V14.01,2013-09-24 08:21:00,
2013-09-24 04:22:00,74.6,74.6,29.82,North,0,0.0,0.0,100,0.17,,---,0.30,VWS V14.01,2013-09-24 08:22:00,
2013-09-24 04:25:00,74.6,74.6,29.82,North,0,0.0,6.0,100,0.17,,---,0.30,VWS V14.01,2013-09-24 08:25:00,
2013-09-24 04:26:00,74.6,74.6,29.82,North,0,2.0,7.0,100,0.17,,---,0.30,VWS V14.01,2013-09-24 08:26:00,
2013-09-24 04:27:00,74.6,74.6,29.82,North,0,0.0,7.0,100,0.17,,---,0.30,VWS V14.01,2013-09-24 08:27:00,
2013-09-24 04:28:00,74.6,74.6,29.82,North,0,0.0,7.0,100,0.17,,---,0.30,VWS V14.01,2013-09-24 08:28:00,
2013-09-24 04:31:00,74.6,74.6,29.82,North,0,1.0,7.0,100,0.18,,---,0.31,VWS V14.01,2013-09-24 08:31:00,
2013-09-24 04:32:00,74.6,74.6,29.82,North,0,0.0,7.0,100,0.18,,---,0.31,VWS V14.01,2013-09-24 08:32:00,
2013-09-24 04:33:00,74.6,74.6,29.82,North,0,0.0,7.0,100,0.18,,---,0.31,VWS V14.01,2013-09-24 08:33:00,
2013-09-24 04:34:00,74.6,74.6,29.81,North,0,0.0,7.0,100,0.18,,---,0.31,VWS V14.01,2013-09-24 08:34:00,
2013-09-24 04:37:00,74.6,74.6,29.81,North,0,0.0,7.0,100,0.18,,---,0.31,VWS V14.01,2013-09-24 08:37:00,
2013-09-24 04:39:00,74.6,74.6,29.81,North,0,0.0,7.0,100,0.18,,---,0.31,VWS V14.01,2013-09-24 08:39:00,
2013-09-24 04:42:00,74.6,74.6,29.81,North,0,1.0,7.0,100,0.18,,---,0.31,VWS V14.01,2013-09-24 08:42:00,
2013-09-24 04:43:00,74.6,74.6,29.81,North,0,0.0,7.0,100,0.18,,---,0.31,VWS V14.01,2013-09-24 08:43:00,
2013-09-24 04:44:00,74.6,74.6,29.81,North,0,0.0,7.0,100,0.18,,---,0.31,VWS V14.01,2013-09-24 08:44:00,
2013-09-24 04:45:00,74.6,74.6,29.81,North,0,0.0,7.0,100,0.18,,---,0.31,VWS V14.01,2013-09-24 08:45:00,
2013-09-24 04:47:00,74.6,74.6,29.81,North,0,0.0,7.0,100,0.18,,---,0.31,VWS V14.01,2013-09-24 08:47:00,
2013-09-24 04:48:00,74.6,74.6,29.81,North,0,0.0,7.0,100,0.18,,---,0.31,VWS V14.01,2013-09-24 08:48:00,
2013-09-24 04:49:00,74.6,74.6,29.81,North,0,0.0,7.0,100,0.18,,---,0.31,VWS V14.01,2013-09-24 08:49:00,
2013-09-24 04:50:00,74.6,74.6,29.81,North,0,0.0,7.0,100,0.18,,---,0.31,VWS V14.01,2013-09-24 08:50:00,
2013-09-24 04:52:00,74.6,74.6,29.81,North,0,0.0,7.0,100,0.18,,---,0.31,VWS V14.01,2013-09-24 08:52:00,
2013-09-24 04:53:00,74.6,74.6,29.81,North,0,0.0,7.0,100,0.18,,---,0.31,VWS V14.01,2013-09-24 08:53:00,
2013-09-24 04:55:00,74.6,74.6,29.81,North,0,0.0,7.0,100,0.18,,---,0.31,VWS V14.01,2013-09-24 08:55:00,
2013-09-24 04:56:00,74.6,74.6,29.81,North,0,0.0,7.0,100,0.18,,---,0.31,VWS V14.01,2013-09-24 08:56:00,
2013-09-24 04:57:00,74.6,74.6,29.81,North,0,0.0,7.0,100,0.18,,---,0.31,VWS V14.01,2013-09-24 08:57:00,
2013-09-24 04:58:00,74.6,74.6,29.81,North,0,0.0,7.0,100,0.18,,---,0.31,VWS V14.01,2013-09-24 08:58:00,
2013-09-24 05:01:00,74.6,74.6,29.81,North,0,0.0,7.0,100,0.18,,---,0.31,VWS V14.01,2013-09-24 09:01:00,
2013-09-24 05:02:00,74.6,74.6,29.81,North,0,0.0,7.0,100,0.18,,---,0.31,VWS V14.01,2013-09-24 09:02:00,
2013-09-24 05:03:00,74.6,74.6,29.81,North,0,0.0,7.0,100,0.18,,---,0.31,VWS V14.01,2013-09-24 09:03:00,
2013-09-24 05:07:00,74.6,74.6,29.81,North,0,0.0,0.0,100,0.01,,---,0.31,VWS V14.01,2013-09-24 09:07:00,
2013-09-24 05:08:00,74.6,74.6,29.81,North,0,0.0,0.0,100,0.01,,---,0.31,VWS V14.01,2013-09-24 09:08:00,
2013-09-24 05:09:00,74.6,74.6,29.81,North,0,0.0,0.0,100,0.01,,---,0.31,VWS V14.01,2013-09-24 09:09:00,
2013-09-24 05:10:00,74.6,74.6,29.81,North,0,0.0,0.0,100,0.01,,---,0.31,VWS V14.01,2013-09-24 09:10:00,
2013-09-24 05:12:00,74.6,74.6,29.81,North,0,0.0,0.0,100,0.01,,---,0.31,VWS V14.01,2013-09-24 09:12:00,
2013-09-24 05:13:00,74.6,74.6,29.81,North,0,0.0,0.0,100,0.01,,---,0.31,VWS V14.01,2013-09-24 09:13:00,
2013-09-24 05:15:00,74.6,74.6,29.81,North,0,0.0,2.0,100,0.01,,---,0.31,VWS V14.01,2013-09-24 09:15:00,
2013-09-24 05:17:00,74.6,74.6,29.81,North,0,0.0,2.0,100,0.01,,---,0.31,VWS V14.01,2013-09-24 09:17:00,
2013-09-24 05:18:00,74.6,74.6,29.81,North,0,0.0,2.0,100,0.01,,---,0.31,VWS V14.01,2013-09-24 09:18:00,
2013-09-24 05:20:00,74.6,74.6,29.81,North,0,0.0,2.0,100,0.01,,---,0.31,VWS V14.01,2013-09-24 09:20:00,
2013-09-24 05:21:00,74.6,74.6,29.81,North,0,0.0,2.0,100,0.01,,---,0.31,VWS V14.01,2013-09-24 09:21:00,
2013-09-24 05:22:00,74.6,74.6,29.81,North,0,0.0,2.0,100,0.01,,---,0.31,VWS V14.01,2013-09-24 09:22:00,
2013-09-24 05:23:00,74.6,74.6,29.81,North,0,0.0,2.0,100,0.01,,---,0.31,VWS V14.01,2013-09-24 09:23:00,
2013-09-24 05:24:00,74.6,74.6,29.81,North,0,0.0,2.0,100,0.01,,---,0.31,VWS V14.01,2013-09-24 09:24:00,
2013-09-24 05:25:00,74.6,74.6,29.81,North,0,0.0,2.0,100,0.01,,---,0.31,VWS V14.01,2013-09-24 09:25:00,
2013-09-24 05:28:00,74.6,74.6,29.81,North,0,0.0,2.0,100,0.01,,---,0.31,VWS V14.01,2013-09-24 09:28:00,
2013-09-24 05:29:00,74.6,74.6,29.81,North,0,0.0,2.0,100,0.01,,---,0.31,VWS V14.01,2013-09-24 09:29:00,
2013-09-24 05:30:00,74.6,74.6,29.81,North,0,0.0,2.0,100,0.01,,---,0.31,VWS V14.01,2013-09-24 09:30:00,
2013-09-24 05:31:00,74.6,74.6,29.81,North,0,0.0,2.0,100,0.01,,---,0.31,VWS V14.01,2013-09-24 09:31:00,
2013-09-24 05:33:00,74.6,74.6,29.82,North,0,0.0,2.0,100,0.01,,---,0.31,VWS V14.01,2013-09-24 09:33:00,
2013-09-24 05:35:00,74.6,74.6,29.82,North,0,0.0,2.0,100,0.01,,---,0.31,VWS V14.01,2013-09-24 09:35:00,
2013-09-24 05:36:00,74.6,74.6,29.82,North,0,0.0,2.0,100,0.01,,---,0.31,VWS V14.01,2013-09-24 09:36:00,
2013-09-24 05:41:00,74.7,74.7,29.82,North,0,0.0,2.0,100,0.01,,---,0.31,VWS V14.01,2013-09-24 09:41:00,
2013-09-24 05:42:00,74.7,74.7,29.82,North,0,0.0,2.0,100,0.01,,---,0.31,VWS V14.01,2013-09-24 09:42:00,
2013-09-24 05:43:00,74.6,74.6,29.82,North,0,0.0,2.0,100,0.01,,---,0.31,VWS V14.01,2013-09-24 09:43:00,
2013-09-24 05:46:00,74.6,74.6,29.82,North,0,0.0,2.0,100,0.01,,---,0.31,VWS V14.01,2013-09-24 09:46:00,
2013-09-24 05:47:00,74.6,74.6,29.82,North,0,0.0,2.0,100,0.01,,---,0.31,VWS V14.01,2013-09-24 09:47:00,
2013-09-24 05:48:00,74.6,74.6,29.82,North,0,0.0,2.0,100,0.01,,---,0.31,VWS V14.01,2013-09-24 09:48:00,
2013-09-24 05:49:00,74.6,74.6,29.82,North,0,0.0,2.0,100,0.01,,---,0.31,VWS V14.01,2013-09-24 09:49:00,
2013-09-24 05:52:00,74.6,74.6,29.82,North,0,0.0,2.0,100,0.01,,---,0.31,VWS V14.01,2013-09-24 09:52:00,
2013-09-24 05:53:00,74.6,74.6,29.82,North,0,0.0,2.0,100,0.01,,---,0.31,VWS V14.01,2013-09-24 09:53:00,
2013-09-24 05:54:00,74.6,74.6,29.82,North,0,0.0,2.0,100,0.02,,---,0.32,VWS V14.01,2013-09-24 09:54:00,
2013-09-24 05:55:00,74.6,74.6,29.82,North,0,0.0,2.0,100,0.02,,---,0.32,VWS V14.01,2013-09-24 09:55:00,
2013-09-24 05:57:00,74.6,74.6,29.82,North,0,0.0,2.0,100,0.02,,---,0.32,VWS V14.01,2013-09-24 09:57:00,
2013-09-24 05:59:00,74.6,74.6,29.82,North,0,0.0,2.0,100,0.02,,---,0.32,VWS V14.01,2013-09-24 09:59:00,
2013-09-24 06:00:00,74.6,74.6,29.82,North,0,0.0,2.0,100,0.02,,---,0.32,VWS V14.01,2013-09-24 10:00:00,
2013-09-24 06:01:00,74.6,74.6,29.82,North,0,0.0,2.0,100,0.02,,---,0.32,VWS V14.01,2013-09-24 10:01:00,
2013-09-24 06:03:00,74.6,74.6,29.82,North,0,0.0,2.0,100,0.03,,---,0.33,VWS V14.01,2013-09-24 10:03:00,
2013-09-24 06:04:00,74.6,74.6,29.83,North,0,0.0,0.0,100,0.02,,---,0.33,VWS V14.01,2013-09-24 10:04:00,
2013-09-24 06:06:00,74.6,74.6,29.83,North,0,0.0,0.0,100,0.02,,---,0.33,VWS V14.01,2013-09-24 10:06:00,
2013-09-24 06:08:00,74.6,74.6,29.83,North,0,0.0,0.0,100,0.02,,---,0.33,VWS V14.01,2013-09-24 10:08:00,
2013-09-24 06:10:00,74.6,74.6,29.83,North,0,0.0,0.0,100,0.03,,---,0.34,VWS V14.01,2013-09-24 10:10:00,
2013-09-24 06:12:00,74.6,74.6,29.83,North,0,0.0,0.0,100,0.03,,---,0.34,VWS V14.01,2013-09-24 10:12:00,
2013-09-24 06:13:00,74.6,74.6,29.83,North,0,0.0,0.0,100,0.03,,---,0.34,VWS V14.01,2013-09-24 10:13:00,
2013-09-24 06:15:00,74.6,74.6,29.83,North,0,0.0,0.0,100,0.04,,---,0.35,VWS V14.01,2013-09-24 10:15:00,
2013-09-24 06:16:00,74.6,74.6,29.83,North,0,0.0,0.0,100,0.04,,---,0.35,VWS V14.01,2013-09-24 10:16:00,
2013-09-24 06:18:00,74.6,74.6,29.83,North,0,0.0,0.0,100,0.04,,---,0.35,VWS V14.01,2013-09-24 10:18:00,
2013-09-24 06:20:00,74.6,74.6,29.83,North,0,0.0,0.0,100,0.04,,---,0.35,VWS V14.01,2013-09-24 10:20:00,
2013-09-24 06:21:00,74.6,74.6,29.83,North,0,0.0,0.0,100,0.05,,---,0.36,VWS V14.01,2013-09-24 10:21:00,
2013-09-24 06:23:00,74.6,74.6,29.83,North,0,0.0,0.0,100,0.05,,---,0.36,VWS V14.01,2013-09-24 10:23:00,
2013-09-24 06:24:00,74.6,74.6,29.83,North,0,0.0,0.0,100,0.05,,---,0.36,VWS V14.01,2013-09-24 10:24:00,
2013-09-24 06:25:00,74.6,74.6,29.83,North,0,0.0,0.0,100,0.05,,---,0.36,VWS V14.01,2013-09-24 10:25:00,
2013-09-24 06:28:00,74.6,74.6,29.83,North,0,0.0,0.0,100,0.05,,---,0.36,VWS V14.01,2013-09-24 10:28:00,
2013-09-24 06:29:00,74.6,74.6,29.83,North,0,0.0,4.0,100,0.05,,---,0.36,VWS V14.01,2013-09-24 10:29:00,
2013-09-24 06:31:00,74.6,74.6,29.83,North,0,0.0,4.0,100,0.06,,---,0.37,VWS V14.01,2013-09-24 10:31:00,
2013-09-24 06:33:00,74.6,74.6,29.83,North,0,0.0,4.0,100,0.06,,---,0.37,VWS V14.01,2013-09-24 10:33:00,
2013-09-24 06:35:00,74.6,74.6,29.83,North,0,0.0,4.0,100,0.06,,---,0.37,VWS V14.01,2013-09-24 10:35:00,
2013-09-24 06:36:00,74.6,74.6,29.83,North,0,0.0,4.0,100,0.06,,---,0.37,VWS V14.01,2013-09-24 10:36:00,
2013-09-24 06:37:00,74.6,74.6,29.83,North,0,0.0,4.0,100,0.07,,---,0.38,VWS V14.01,2013-09-24 10:37:00,
2013-09-24 06:38:00,74.6,74.6,29.83,North,0,0.0,4.0,100,0.07,,---,0.38,VWS V14.01,2013-09-24 10:38:00,
2013-09-24 06:41:00,74.6,74.6,29.83,North,0,0.0,4.0,100,0.07,,---,0.38,VWS V14.01,2013-09-24 10:41:00,
2013-09-24 06:43:00,74.6,74.6,29.83,North,0,0.0,4.0,100,0.07,,---,0.38,VWS V14.01,2013-09-24 10:43:00,
2013-09-24 06:44:00,74.6,74.6,29.83,North,0,0.0,4.0,100,0.07,,---,0.38,VWS V14.01,2013-09-24 10:44:00,
2013-09-24 06:46:00,74.6,74.6,29.83,North,0,0.0,4.0,100,0.07,,---,0.38,VWS V14.01,2013-09-24 10:46:00,
2013-09-24 06:47:00,74.6,74.6,29.83,North,0,0.0,4.0,100,0.08,,---,0.39,VWS V14.01,2013-09-24 10:47:00,
2013-09-24 06:48:00,74.6,74.6,29.82,North,0,0.0,4.0,100,0.08,,---,0.39,VWS V14.01,2013-09-24 10:48:00,
2013-09-24 06:50:00,74.6,74.6,29.82,North,0,0.0,4.0,100,0.08,,---,0.39,VWS V14.01,2013-09-24 10:50:00,
2013-09-24 06:52:00,74.6,74.6,29.82,North,0,0.0,4.0,100,0.08,,---,0.39,VWS V14.01,2013-09-24 10:52:00,
2013-09-24 06:53:00,74.6,74.6,29.82,North,0,0.0,4.0,100,0.08,,---,0.39,VWS V14.01,2013-09-24 10:53:00,
2013-09-24 06:55:00,74.6,74.6,29.82,North,0,0.0,4.0,100,0.08,,---,0.39,VWS V14.01,2013-09-24 10:55:00,
2013-09-24 06:56:00,74.6,74.6,29.82,North,0,0.0,4.0,100,0.08,,---,0.39,VWS V14.01,2013-09-24 10:56:00,
2013-09-24 06:58:00,74.6,74.6,29.82,North,0,0.0,4.0,100,0.08,,---,0.39,VWS V14.01,2013-09-24 10:58:00,
2013-09-24 06:59:00,74.6,74.6,29.82,North,0,0.0,4.0,100,0.08,,---,0.39,VWS V14.01,2013-09-24 10:59:00,
2013-09-24 07:00:00,74.6,74.6,29.82,North,0,0.0,4.0,100,0.08,,---,0.39,VWS V14.01,2013-09-24 11:00:00,
2013-09-24 07:01:00,74.6,74.6,29.82,North,0,0.0,4.0,100,0.08,,---,0.39,VWS V14.01,2013-09-24 11:01:00,
2013-09-24 07:03:00,74.6,74.6,29.83,North,0,0.0,4.0,100,0.08,,---,0.39,VWS V14.01,2013-09-24 11:03:00,
2013-09-24 07:04:00,74.6,74.6,29.83,North,0,0.0,0.0,100,0.06,,---,0.39,VWS V14.01,2013-09-24 11:04:00,
2013-09-24 07:05:00,74.6,74.6,29.83,North,0,0.0,0.0,100,0.06,,---,0.39,VWS V14.01,2013-09-24 11:05:00,
2013-09-24 07:08:00,74.7,74.7,29.83,North,0,0.0,0.0,100,0.07,,---,0.40,VWS V14.01,2013-09-24 11:08:00,
2013-09-24 07:09:00,74.7,74.7,29.83,North,0,0.0,0.0,100,0.07,,---,0.40,VWS V14.01,2013-09-24 11:09:00,
2013-09-24 07:10:00,74.7,74.7,29.83,North,0,0.0,0.0,100,0.07,,---,0.40,VWS V14.01,2013-09-24 11:10:00,
2013-09-24 07:12:00,74.7,74.7,29.83,North,0,0.0,0.0,100,0.07,,---,0.40,VWS V14.01,2013-09-24 11:12:00,
2013-09-24 07:14:00,74.7,74.7,29.83,North,0,0.0,1.0,100,0.07,,---,0.40,VWS V14.01,2013-09-24 11:14:00,
2013-09-24 07:16:00,74.7,74.7,29.83,North,0,0.0,1.0,100,0.07,,---,0.40,VWS V14.01,2013-09-24 11:16:00,
2013-09-24 07:17:00,74.7,74.7,29.83,North,0,0.0,1.0,100,0.07,,---,0.40,VWS V14.01,2013-09-24 11:17:00,
2013-09-24 07:21:00,74.7,74.7,29.83,North,0,0.0,1.0,100,0.07,,---,0.40,VWS V14.01,2013-09-24 11:21:00,
2013-09-24 07:22:00,74.7,74.7,29.83,North,0,0.0,1.0,100,0.08,,---,0.41,VWS V14.01,2013-09-24 11:22:00,
2013-09-24 07:24:00,74.7,74.7,29.83,North,0,0.0,1.0,100,0.08,,---,0.41,VWS V14.01,2013-09-24 11:24:00,
2013-09-24 07:26:00,74.7,74.7,29.83,North,0,0.0,1.0,100,0.08,,---,0.41,VWS V14.01,2013-09-24 11:26:00,
2013-09-24 07:27:00,74.9,74.9,29.83,North,0,0.0,1.0,100,0.08,,---,0.41,VWS V14.01,2013-09-24 11:27:00,
2013-09-24 07:28:00,74.9,74.9,29.83,North,0,1.0,2.0,100,0.08,,---,0.41,VWS V14.01,2013-09-24 11:28:00,
2013-09-24 07:29:00,74.9,74.9,29.83,North,0,0.0,2.0,100,0.08,,---,0.41,VWS V14.01,2013-09-24 11:29:00,
2013-09-24 07:31:00,74.9,74.9,29.83,North,0,0.0,2.0,100,0.08,,---,0.41,VWS V14.01,2013-09-24 11:31:00,
2013-09-24 07:32:00,74.9,74.9,29.83,North,0,0.0,2.0,100,0.09,,---,0.42,VWS V14.01,2013-09-24 11:32:00,
2013-09-24 07:33:00,74.9,74.9,29.83,North,0,0.0,2.0,100,0.09,,---,0.42,VWS V14.01,2013-09-24 11:33:00,
2013-09-24 07:36:00,74.9,74.9,29.83,North,0,0.0,2.0,100,0.09,,---,0.42,VWS V14.01,2013-09-24 11:36:00,
2013-09-24 07:37:00,74.9,74.9,29.83,North,0,0.0,2.0,100,0.09,,---,0.42,VWS V14.01,2013-09-24 11:37:00,
2013-09-24 07:38:00,74.9,74.9,29.83,North,0,0.0,2.0,100,0.09,,---,0.42,VWS V14.01,2013-09-24 11:38:00,
2013-09-24 07:39:00,74.9,74.9,29.83,North,0,0.0,2.0,100,0.09,,---,0.42,VWS V14.01,2013-09-24 11:39:00,
2013-09-24 07:40:00,74.9,74.9,29.83,North,0,0.0,2.0,100,0.10,,---,0.43,VWS V14.01,2013-09-24 11:40:00,
2013-09-24 07:41:00,75.1,75.1,29.83,North,0,0.0,2.0,100,0.10,,---,0.43,VWS V14.01,2013-09-24 11:41:00,
2013-09-24 07:42:00,75.1,75.1,29.83,North,0,0.0,2.0,100,0.10,,---,0.43,VWS V14.01,2013-09-24 11:42:00,
2013-09-24 07:43:00,75.1,75.1,29.83,North,0,0.0,2.0,100,0.10,,---,0.43,VWS V14.01,2013-09-24 11:43:00,
2013-09-24 07:45:00,75.1,75.1,29.83,North,0,0.0,2.0,100,0.10,,---,0.43,VWS V14.01,2013-09-24 11:45:00,
2013-09-24 07:46:00,75.1,75.1,29.83,North,0,0.0,2.0,100,0.11,,---,0.44,VWS V14.01,2013-09-24 11:46:00,
2013-09-24 07:47:00,75.1,75.1,29.83,North,0,0.0,2.0,100,0.11,,---,0.44,VWS V14.01,2013-09-24 11:47:00,
2013-09-24 07:50:00,75.1,75.1,29.83,North,0,0.0,2.0,100,0.11,,---,0.44,VWS V14.01,2013-09-24 11:50:00,
2013-09-24 07:51:00,75.1,75.1,29.83,North,0,0.0,2.0,100,0.12,,---,0.45,VWS V14.01,2013-09-24 11:51:00,
2013-09-24 07:53:00,75.1,75.1,29.83,North,0,0.0,2.0,100,0.12,,---,0.45,VWS V14.01,2013-09-24 11:53:00,
2013-09-24 07:54:00,75.1,75.1,29.83,North,0,0.0,2.0,100,0.12,,---,0.45,VWS V14.01,2013-09-24 11:54:00,
2013-09-24 07:55:00,75.1,75.1,29.83,North,0,0.0,2.0,100,0.12,,---,0.45,VWS V14.01,2013-09-24 11:55:00,
2013-09-24 07:57:00,75.1,75.1,29.83,North,0,0.0,2.0,100,0.13,,---,0.46,VWS V14.01,2013-09-24 11:57:00,
2013-09-24 07:58:00,75.1,75.1,29.83,North,0,0.0,2.0,100,0.13,,---,0.46,VWS V14.01,2013-09-24 11:58:00,
2013-09-24 08:01:00,75.1,75.1,29.83,North,0,0.0,2.0,100,0.13,,---,0.46,VWS V14.01,2013-09-24 12:01:00,
2013-09-24 08:02:00,75.1,75.1,29.83,North,0,0.0,2.0,100,0.13,,---,0.46,VWS V14.01,2013-09-24 12:02:00,
2013-09-24 08:04:00,75.1,75.1,29.85,North,0,0.0,2.0,100,0.14,,---,0.47,VWS V14.01,2013-09-24 12:04:00,
2013-09-24 08:06:00,75.1,75.1,29.85,North,0,0.0,0.0,100,0.08,,---,0.47,VWS V14.01,2013-09-24 12:06:00,
2013-09-24 08:07:00,75.1,75.1,29.85,North,0,0.0,0.0,100,0.09,,---,0.48,VWS V14.01,2013-09-24 12:07:00,
2013-09-24 08:09:00,75.1,75.1,29.85,North,0,0.0,0.0,100,0.09,,---,0.48,VWS V14.01,2013-09-24 12:09:00,
2013-09-24 08:11:00,75.1,75.1,29.85,North,0,0.0,0.0,100,0.09,,---,0.48,VWS V14.01,2013-09-24 12:11:00,
2013-09-24 08:12:00,75.1,75.1,29.85,North,0,0.0,0.0,100,0.09,,---,0.48,VWS V14.01,2013-09-24 12:12:00,
2013-09-24 08:15:00,75.3,75.3,29.85,North,0,0.0,0.0,100,0.10,,---,0.49,VWS V14.01,2013-09-24 12:15:00,
2013-09-24 08:16:00,75.3,75.3,29.85,North,0,0.0,0.0,100,0.10,,---,0.49,VWS V14.01,2013-09-24 12:16:00,
2013-09-24 08:17:00,75.1,75.1,29.85,North,0,0.0,0.0,100,0.10,,---,0.49,VWS V14.01,2013-09-24 12:17:00,
2013-09-24 08:20:00,75.1,75.1,29.85,North,0,0.0,0.0,100,0.11,,---,0.50,VWS V14.01,2013-09-24 12:20:00,
2013-09-24 08:21:00,75.1,75.1,29.85,North,0,0.0,0.0,100,0.11,,---,0.50,VWS V14.01,2013-09-24 12:21:00,
2013-09-24 08:22:00,75.1,75.1,29.85,North,0,0.0,0.0,100,0.11,,---,0.50,VWS V14.01,2013-09-24 12:22:00,
2013-09-24 08:25:00,75.1,75.1,29.85,North,0,0.0,0.0,100,0.12,,---,0.51,VWS V14.01,2013-09-24 12:25:00,
2013-09-24 08:27:00,75.1,75.1,29.85,North,0,0.0,0.0,100,0.12,,---,0.51,VWS V14.01,2013-09-24 12:27:00,
2013-09-24 08:28:00,75.1,75.1,29.85,North,0,0.0,0.0,100,0.12,,---,0.51,VWS V14.01,2013-09-24 12:28:00,
2013-09-24 08:31:00,75.1,75.1,29.85,North,0,0.0,0.0,100,0.13,,---,0.52,VWS V14.01,2013-09-24 12:31:00,
2013-09-24 08:32:00,75.1,75.1,29.85,North,0,0.0,0.0,100,0.13,,---,0.52,VWS V14.01,2013-09-24 12:32:00,
2013-09-24 08:33:00,75.1,75.1,29.85,North,0,0.0,0.0,100,0.13,,---,0.52,VWS V14.01,2013-09-24 12:33:00,
2013-09-24 08:34:00,75.1,75.1,29.85,North,0,0.0,0.0,100,0.13,,---,0.52,VWS V14.01,2013-09-24 12:34:00,
2013-09-24 08:36:00,75.1,75.1,29.85,North,0,0.0,0.0,100,0.13,,---,0.52,VWS V14.01,2013-09-24 12:36:00,
2013-09-24 08:37:00,75.1,75.1,29.85,North,0,0.0,0.0,100,0.13,,---,0.52,VWS V14.01,2013-09-24 12:37:00,
2013-09-24 08:38:00,75.1,75.1,29.85,North,0,0.0,0.0,100,0.13,,---,0.52,VWS V14.01,2013-09-24 12:38:00,
2013-09-24 08:39:00,75.1,75.1,29.85,North,0,0.0,0.0,100,0.14,,---,0.53,VWS V14.01,2013-09-24 12:39:00,
2013-09-24 08:41:00,75.3,75.3,29.85,North,0,0.0,0.0,100,0.15,,---,0.54,VWS V14.01,2013-09-24 12:41:00,
2013-09-24 08:43:00,75.1,75.1,29.85,North,0,0.0,0.0,100,0.15,,---,0.54,VWS V14.01,2013-09-24 12:43:00,
2013-09-24 08:45:00,75.1,75.1,29.85,North,0,0.0,0.0,100,0.16,,---,0.55,VWS V14.01,2013-09-24 12:45:00,
2013-09-24 08:46:00,75.3,75.3,29.85,North,0,0.0,0.0,100,0.16,,---,0.55,VWS V14.01,2013-09-24 12:46:00,
2013-09-24 08:48:00,75.1,75.1,29.85,North,0,0.0,0.0,100,0.16,,---,0.55,VWS V14.01,2013-09-24 12:48:00,
2013-09-24 08:50:00,75.3,75.3,29.85,North,0,0.0,0.0,100,0.17,,---,0.56,VWS V14.01,2013-09-24 12:50:00,
2013-09-24 08:51:00,75.3,75.3,29.85,North,0,0.0,0.0,100,0.17,,---,0.56,VWS V14.01,2013-09-24 12:51:00,
2013-09-24 08:52:00,75.3,75.3,29.85,North,0,0.0,0.0,100,0.18,,---,0.57,VWS V14.01,2013-09-24 12:52:00,
2013-09-24 08:53:00,75.3,75.3,29.85,North,0,0.0,0.0,100,0.18,,---,0.57,VWS V14.01,2013-09-24 12:53:00,
2013-09-24 08:55:00,75.3,75.3,29.85,North,0,0.0,0.0,100,0.19,,---,0.58,VWS V14.01,2013-09-24 12:55:00,
2013-09-24 08:58:00,75.3,75.3,29.85,North,0,0.0,0.0,100,0.20,,---,0.59,VWS V14.01,2013-09-24 12:58:00,
2013-09-24 08:59:00,75.3,75.3,29.85,North,0,0.0,0.0,100,0.20,,---,0.59,VWS V14.01,2013-09-24 12:59:00,
2013-09-24 09:00:00,75.3,75.3,29.85,North,0,0.0,0.0,100,0.20,,---,0.59,VWS V14.01,2013-09-24 13:00:00,
2013-09-24 09:02:00,75.3,75.3,29.85,North,0,0.0,0.0,100,0.21,,---,0.60,VWS V14.01,2013-09-24 13:02:00,
2013-09-24 09:04:00,75.3,75.3,29.86,North,0,0.0,1.0,100,0.21,,---,0.60,VWS V14.01,2013-09-24 13:04:00,
2013-09-24 09:05:00,75.3,75.3,29.86,North,0,0.0,0.0,100,0.13,,---,0.60,VWS V14.01,2013-09-24 13:05:00,
2013-09-24 09:06:00,75.3,75.3,29.86,North,0,0.0,0.0,100,0.13,,---,0.60,VWS V14.01,2013-09-24 13:06:00,
2013-09-24 09:08:00,75.3,75.3,29.86,North,0,0.0,0.0,100,0.14,,---,0.61,VWS V14.01,2013-09-24 13:08:00,
2013-09-24 09:09:00,75.3,75.3,29.86,North,0,0.0,0.0,100,0.14,,---,0.61,VWS V14.01,2013-09-24 13:09:00,
2013-09-24 09:11:00,75.3,75.3,29.86,North,0,0.0,0.0,100,0.15,,---,0.62,VWS V14.01,2013-09-24 13:11:00,
2013-09-24 09:12:00,75.3,75.3,29.86,North,0,0.0,0.0,100,0.15,,---,0.62,VWS V14.01,2013-09-24 13:12:00,
2013-09-24 09:14:00,75.3,75.3,29.86,North,0,4.0,4.0,100,0.15,,---,0.62,VWS V14.01,2013-09-24 13:14:00,
2013-09-24 09:15:00,75.3,75.3,29.86,North,0,4.0,5.0,100,0.15,,---,0.62,VWS V14.01,2013-09-24 13:15:00,
2013-09-24 09:17:00,75.3,75.3,29.86,North,0,1.0,5.0,100,0.16,,---,0.63,VWS V14.01,2013-09-24 13:17:00,
2013-09-24 09:18:00,75.3,75.3,29.86,North,0,5.0,5.0,100,0.16,,---,0.63,VWS V14.01,2013-09-24 13:18:00,
2013-09-24 09:19:00,75.4,75.4,29.86,North,0,2.0,6.0,100,0.16,,---,0.63,VWS V14.01,2013-09-24 13:19:00,
2013-09-24 09:21:00,75.4,75.4,29.86,North,0,0.0,6.0,100,0.16,,---,0.63,VWS V14.01,2013-09-24 13:21:00,
2013-09-24 09:22:00,75.4,75.4,29.86,North,0,0.0,6.0,100,0.16,,---,0.63,VWS V14.01,2013-09-24 13:22:00,
2013-09-24 09:23:00,75.4,75.4,29.86,North,0,0.0,6.0,100,0.16,,---,0.63,VWS V14.01,2013-09-24 13:23:00,
2013-09-24 09:26:00,75.4,75.4,29.86,North,0,0.0,6.0,100,0.17,,---,0.64,VWS V14.01,2013-09-24 13:26:00,
2013-09-24 09:28:00,75.6,75.6,29.86,North,0,0.0,6.0,100,0.17,,---,0.64,VWS V14.01,2013-09-24 13:28:00,
2013-09-24 09:31:00,75.6,75.6,29.86,North,0,0.0,6.0,100,0.17,,---,0.64,VWS V14.01,2013-09-24 13:31:00,
2013-09-24 09:33:00,75.6,75.6,29.88,North,0,0.0,6.0,100,0.18,,---,0.65,VWS V14.01,2013-09-24 13:33:00,
2013-09-24 09:34:00,75.6,75.6,29.88,North,0,0.0,6.0,100,0.18,,---,0.65,VWS V14.01,2013-09-24 13:34:00,
2013-09-24 09:36:00,75.8,75.8,29.88,North,0,0.0,6.0,100,0.20,,---,0.67,VWS V14.01,2013-09-24 13:36:00,
2013-09-24 09:37:00,75.8,75.8,29.88,North,0,0.0,6.0,100,0.22,,---,0.69,VWS V14.01,2013-09-24 13:37:00,
2013-09-24 09:38:00,75.8,75.8,29.88,North,0,6.0,6.0,100,0.27,,---,0.74,VWS V14.01,2013-09-24 13:38:00,
2013-09-24 09:40:00,75.8,75.8,29.88,North,0,2.0,7.0,100,0.30,,---,0.77,VWS V14.01,2013-09-24 13:40:00,
2013-09-24 09:41:00,75.8,75.8,29.88,North,0,0.0,7.0,100,0.30,,---,0.77,VWS V14.01,2013-09-24 13:41:00,
2013-09-24 09:42:00,75.8,75.8,29.88,North,0,0.0,7.0,100,0.31,,---,0.78,VWS V14.01,2013-09-24 13:42:00,
2013-09-24 09:43:00,75.8,75.8,29.88,North,0,0.0,7.0,100,0.31,,---,0.78,VWS V14.01,2013-09-24 13:43:00,
2013-09-24 09:44:00,75.8,75.8,29.88,North,0,0.0,7.0,100,0.31,,---,0.78,VWS V14.01,2013-09-24 13:44:00,
2013-09-24 09:45:00,75.8,75.8,29.88,North,0,0.0,7.0,100,0.32,,---,0.79,VWS V14.01,2013-09-24 13:45:00,
2013-09-24 09:48:00,75.8,75.8,29.88,North,0,0.0,7.0,100,0.33,,---,0.80,VWS V14.01,2013-09-24 13:48:00,
2013-09-24 09:49:00,76.0,76.0,29.89,North,0,0.0,7.0,100,0.34,,---,0.81,VWS V14.01,2013-09-24 13:49:00,
2013-09-24 09:50:00,76.0,76.0,29.89,North,0,0.0,7.0,100,0.35,,---,0.82,VWS V14.01,2013-09-24 13:50:00,
2013-09-24 09:52:00,76.0,76.0,29.89,North,0,0.0,7.0,100,0.36,,---,0.83,VWS V14.01,2013-09-24 13:52:00,
2013-09-24 09:54:00,76.0,76.0,29.89,North,0,0.0,7.0,100,0.38,,---,0.85,VWS V14.01,2013-09-24 13:54:00,
2013-09-24 09:55:00,76.0,76.0,29.89,North,0,0.0,7.0,100,0.38,,---,0.85,VWS V14.01,2013-09-24 13:55:00,
2013-09-24 09:56:00,76.0,76.0,29.89,North,0,0.0,7.0,100,0.40,,---,0.87,VWS V14.01,2013-09-24 13:56:00,
2013-09-24 09:57:00,76.0,76.0,29.89,North,0,0.0,7.0,100,0.41,,---,0.88,VWS V14.01,2013-09-24 13:57:00,
2013-09-24 09:58:00,76.0,76.0,29.89,North,0,0.0,7.0,100,0.42,,---,0.89,VWS V14.01,2013-09-24 13:58:00,
2013-09-24 10:00:00,76.0,76.0,29.89,North,0,0.0,7.0,100,0.43,,---,0.90,VWS V14.01,2013-09-24 14:00:00,
2013-09-24 10:02:00,76.0,76.0,29.89,North,0,0.0,7.0,100,0.43,,---,0.90,VWS V14.01,2013-09-24 14:02:00,
2013-09-24 10:03:00,76.0,76.0,29.89,North,0,0.0,7.0,100,0.43,,---,0.90,VWS V14.01,2013-09-24 14:03:00,
2013-09-24 10:04:00,76.0,76.0,29.88,North,0,0.0,0.0,100,0.31,,---,0.91,VWS V14.01,2013-09-24 14:04:00,
2013-09-24 10:07:00,75.6,75.6,29.88,North,0,0.0,0.0,100,0.31,,---,0.91,VWS V14.01,2013-09-24 14:07:00,
2013-09-24 10:08:00,75.4,75.4,29.88,North,0,0.0,0.0,100,0.31,,---,0.91,VWS V14.01,2013-09-24 14:08:00,
2013-09-24 10:09:00,75.3,75.3,29.88,North,0,0.0,0.0,100,0.32,,---,0.92,VWS V14.01,2013-09-24 14:09:00,
2013-09-24 10:10:00,75.1,75.1,29.88,North,0,0.0,0.0,100,0.32,,---,0.92,VWS V14.01,2013-09-24 14:10:00,
2013-09-24 10:13:00,74.9,74.9,29.88,North,0,0.0,0.0,100,0.32,,---,0.92,VWS V14.01,2013-09-24 14:13:00,
2013-09-24 10:14:00,74.7,74.7,29.88,North,0,0.0,0.0,100,0.33,,---,0.93,VWS V14.01,2013-09-24 14:14:00,
2013-09-24 10:15:00,74.6,74.6,29.88,North,0,0.0,0.0,100,0.33,,---,0.93,VWS V14.01,2013-09-24 14:15:00,
2013-09-24 10:19:00,74.2,74.2,29.88,North,0,0.0,4.0,100,0.36,,---,0.96,VWS V14.01,2013-09-24 14:19:00,
2013-09-24 10:21:00,73.9,73.9,29.88,North,0,0.0,4.0,100,0.37,,---,0.97,VWS V14.01,2013-09-24 14:21:00,
2013-09-24 10:22:00,73.7,73.7,29.88,North,0,0.0,4.0,100,0.37,,---,0.97,VWS V14.01,2013-09-24 14:22:00,
2013-09-24 10:24:00,73.5,73.5,29.88,North,0,0.0,4.0,100,0.38,,---,0.98,VWS V14.01,2013-09-24 14:24:00,
2013-09-24 10:25:00,73.2,73.2,29.88,North,0,1.0,4.0,100,0.38,,---,0.98,VWS V14.01,2013-09-24 14:25:00,
2013-09-24 10:26:00,73.2,73.2,29.88,North,0,0.0,4.0,100,0.38,,---,0.98,VWS V14.01,2013-09-24 14:26:00,
2013-09-24 10:27:00,73.2,73.2,29.88,North,0,0.0,4.0,100,0.39,,---,0.99,VWS V14.01,2013-09-24 14:27:00,
2013-09-24 10:28:00,73.0,73.0,29.88,North,0,0.0,4.0,100,0.39,,---,0.99,VWS V14.01,2013-09-24 14:28:00,
2013-09-24 10:30:00,72.8,72.8,29.88,North,0,0.0,4.0,100,0.39,,---,0.99,VWS V14.01,2013-09-24 14:30:00,
2013-09-24 10:31:00,72.7,72.7,29.88,North,0,0.0,4.0,100,0.39,,---,0.99,VWS V14.01,2013-09-24 14:31:00,
2013-09-24 10:33:00,72.7,72.7,29.88,North,0,0.0,4.0,100,0.39,,---,0.99,VWS V14.01,2013-09-24 14:33:00,
2013-09-24 10:35:00,72.5,72.5,29.86,North,0,0.0,4.0,100,0.40,,---,1.00,VWS V14.01,2013-09-24 14:35:00,
2013-09-24 10:36:00,72.5,72.5,29.86,North,0,0.0,4.0,100,0.40,,---,1.00,VWS V14.01,2013-09-24 14:36:00,
2013-09-24 10:37:00,72.5,72.5,29.86,North,0,0.0,4.0,100,0.40,,---,1.00,VWS V14.01,2013-09-24 14:37:00,
2013-09-24 10:38:00,72.5,72.5,29.86,North,0,1.0,4.0,100,0.40,,---,1.00,VWS V14.01,2013-09-24 14:38:00,
2013-09-24 10:39:00,72.5,72.5,29.86,North,0,1.0,4.0,100,0.40,,---,1.00,VWS V14.01,2013-09-24 14:39:00,
2013-09-24 10:41:00,72.5,72.5,29.86,North,0,0.0,4.0,100,0.40,,---,1.00,VWS V14.01,2013-09-24 14:41:00,
2013-09-24 10:42:00,72.5,72.5,29.86,North,0,0.0,4.0,100,0.40,,---,1.00,VWS V14.01,2013-09-24 14:42:00,
2013-09-24 10:43:00,72.5,72.5,29.86,North,0,4.0,5.0,100,0.41,,---,1.01,VWS V14.01,2013-09-24 14:43:00,
2013-09-24 10:44:00,72.5,72.5,29.86,North,0,6.0,7.0,100,0.41,,---,1.01,VWS V14.01,2013-09-24 14:44:00,
2013-09-24 10:45:00,72.5,72.5,29.86,North,0,0.0,7.0,100,0.41,,---,1.01,VWS V14.01,2013-09-24 14:45:00,
2013-09-24 10:47:00,72.5,72.5,29.86,North,0,4.0,7.0,100,0.41,,---,1.01,VWS V14.01,2013-09-24 14:47:00,
2013-09-24 10:48:00,72.5,72.5,29.86,North,0,2.0,7.0,100,0.41,,---,1.01,VWS V14.01,2013-09-24 14:48:00,
2013-09-24 10:49:00,72.5,72.5,29.86,North,0,0.0,7.0,100,0.42,,---,1.02,VWS V14.01,2013-09-24 14:49:00,
2013-09-24 10:51:00,72.5,72.5,29.86,North,0,0.0,7.0,100,0.42,,---,1.02,VWS V14.01,2013-09-24 14:51:00,
2013-09-24 10:54:00,72.7,72.7,29.86,North,0,4.0,7.0,100,0.43,,---,1.03,VWS V14.01,2013-09-24 14:54:00,
2013-09-24 10:55:00,72.7,72.7,29.86,North,0,0.0,7.0,100,0.43,,---,1.03,VWS V14.01,2013-09-24 14:55:00,
2013-09-24 10:56:00,72.7,72.7,29.86,North,0,0.0,7.0,100,0.43,,---,1.03,VWS V14.01,2013-09-24 14:56:00,
2013-09-24 11:01:00,72.8,72.8,29.86,North,0,0.0,7.0,100,0.44,,---,1.04,VWS V14.01,2013-09-24 15:01:00,
2013-09-24 11:02:00,72.8,72.8,29.86,North,0,0.0,7.0,100,0.44,,---,1.04,VWS V14.01,2013-09-24 15:02:00,
2013-09-24 11:03:00,73.0,73.0,29.86,North,0,0.0,7.0,100,0.45,,---,1.05,VWS V14.01,2013-09-24 15:03:00,
2013-09-24 11:06:00,73.0,73.0,29.86,North,0,0.0,0.0,100,0.14,,---,1.05,VWS V14.01,2013-09-24 15:06:00,
2013-09-24 11:07:00,73.0,73.0,29.86,North,0,0.0,0.0,100,0.14,,---,1.05,VWS V14.01,2013-09-24 15:07:00,
2013-09-24 11:08:00,73.0,73.0,29.86,North,0,0.0,0.0,100,0.14,,---,1.05,VWS V14.01,2013-09-24 15:08:00,
2013-09-24 11:11:00,73.0,73.0,29.86,North,0,0.0,0.0,100,0.15,,---,1.06,VWS V14.01,2013-09-24 15:11:00,
2013-09-24 11:13:00,73.2,73.2,29.86,North,0,0.0,0.0,100,0.15,,---,1.06,VWS V14.01,2013-09-24 15:13:00,
2013-09-24 11:14:00,73.2,73.2,29.86,North,0,0.0,0.0,100,0.15,,---,1.06,VWS V14.01,2013-09-24 15:14:00,
2013-09-24 11:15:00,73.2,73.2,29.86,North,0,0.0,0.0,100,0.16,,---,1.07,VWS V14.01,2013-09-24 15:15:00,
2013-09-24 11:16:00,73.2,73.2,29.86,North,0,0.0,0.0,100,0.16,,---,1.07,VWS V14.01,2013-09-24 15:16:00,
2013-09-24 11:19:00,73.3,73.3,29.86,North,0,0.0,0.0,100,0.16,,---,1.07,VWS V14.01,2013-09-24 15:19:00,
2013-09-24 11:20:00,73.3,73.3,29.86,North,0,0.0,0.0,100,0.16,,---,1.07,VWS V14.01,2013-09-24 15:20:00,
2013-09-24 11:22:00,73.5,73.5,29.86,North,0,0.0,0.0,100,0.17,,---,1.08,VWS V14.01,2013-09-24 15:22:00,
2013-09-24 11:25:00,73.5,73.5,29.86,North,0,0.0,0.0,100,0.17,,---,1.08,VWS V14.01,2013-09-24 15:25:00,
2013-09-24 11:26:00,73.5,73.5,29.86,North,0,0.0,0.0,100,0.18,,---,1.09,VWS V14.01,2013-09-24 15:26:00,
2013-09-24 11:27:00,73.7,73.7,29.86,North,0,0.0,0.0,100,0.18,,---,1.09,VWS V14.01,2013-09-24 15:27:00,
2013-09-24 11:28:00,73.7,73.7,29.86,North,0,0.0,0.0,100,0.18,,---,1.09,VWS V14.01,2013-09-24 15:28:00,
2013-09-24 11:30:00,73.7,73.7,29.86,North,0,0.0,0.0,100,0.18,,---,1.09,VWS V14.01,2013-09-24 15:30:00,
2013-09-24 11:31:00,73.7,73.7,29.86,North,0,0.0,0.0,100,0.19,,---,1.10,VWS V14.01,2013-09-24 15:31:00,
2013-09-24 11:33:00,73.7,73.7,29.86,North,0,0.0,0.0,100,0.19,,---,1.10,VWS V14.01,2013-09-24 15:33:00,
2013-09-24 11:35:00,73.9,73.9,29.86,North,0,0.0,0.0,100,0.20,,---,1.11,VWS V14.01,2013-09-24 15:35:00,
2013-09-24 11:36:00,73.9,73.9,29.86,North,0,0.0,0.0,100,0.20,,---,1.11,VWS V14.01,2013-09-24 15:36:00,
2013-09-24 11:38:00,73.9,73.9,29.86,North,0,0.0,0.0,100,0.20,,---,1.11,VWS V14.01,2013-09-24 15:38:00,
2013-09-24 11:41:00,73.9,73.9,29.86,North,0,0.0,0.0,100,0.21,,---,1.12,VWS V14.01,2013-09-24 15:41:00,
2013-09-24 11:43:00,73.9,73.9,29.86,North,0,0.0,2.0,100,0.21,,---,1.12,VWS V14.01,2013-09-24 15:43:00,
2013-09-24 11:46:00,73.9,73.9,29.86,North,0,0.0,2.0,100,0.22,,---,1.13,VWS V14.01,2013-09-24 15:46:00,
2013-09-24 11:47:00,73.9,73.9,29.86,North,0,0.0,2.0,100,0.22,,---,1.13,VWS V14.01,2013-09-24 15:47:00,
2013-09-24 11:48:00,73.9,73.9,29.86,North,0,0.0,2.0,100,0.22,,---,1.13,VWS V14.01,2013-09-24 15:48:00,
2013-09-24 11:51:00,73.9,73.9,29.86,North,0,0.0,2.0,100,0.23,,---,1.14,VWS V14.01,2013-09-24 15:51:00,
2013-09-24 11:52:00,73.9,73.9,29.86,North,0,0.0,2.0,100,0.23,,---,1.14,VWS V14.01,2013-09-24 15:52:00,
2013-09-24 11:53:00,73.9,73.9,29.86,North,0,0.0,2.0,100,0.23,,---,1.14,VWS V14.01,2013-09-24 15:53:00,
2013-09-24 11:57:00,73.9,73.9,29.86,North,0,0.0,2.0,100,0.24,,---,1.15,VWS V14.01,2013-09-24 15:57:00,
2013-09-24 11:58:00,73.9,73.9,29.86,North,0,0.0,2.0,100,0.24,,---,1.15,VWS V14.01,2013-09-24 15:58:00,
2013-09-24 11:59:00,73.9,73.9,29.86,North,0,0.0,2.0,100,0.24,,---,1.15,VWS V14.01,2013-09-24 15:59:00,
2013-09-24 12:00:00,73.9,73.9,29.86,North,0,0.0,2.0,100,0.24,,---,1.15,VWS V14.01,2013-09-24 16:00:00,
2013-09-24 12:02:00,73.9,73.9,29.86,North,0,0.0,2.0,100,0.25,,---,1.16,VWS V14.01,2013-09-24 16:02:00,
2013-09-24 12:04:00,73.9,73.9,29.85,North,0,0.0,2.0,100,0.25,,---,1.16,VWS V14.01,2013-09-24 16:04:00,
2013-09-24 12:08:00,73.9,73.9,29.85,North,0,0.0,0.0,100,0.12,,---,1.17,VWS V14.01,2013-09-24 16:08:00,
2013-09-24 12:09:00,73.9,73.9,29.85,North,0,0.0,0.0,100,0.12,,---,1.17,VWS V14.01,2013-09-24 16:09:00,
2013-09-24 12:10:00,73.9,73.9,29.85,North,0,0.0,0.0,100,0.12,,---,1.17,VWS V14.01,2013-09-24 16:10:00,
2013-09-24 12:11:00,73.9,73.9,29.85,North,0,0.0,0.0,100,0.12,,---,1.17,VWS V14.01,2013-09-24 16:11:00,
2013-09-24 12:13:00,74.0,74.0,29.85,North,0,0.0,0.0,100,0.13,,---,1.18,VWS V14.01,2013-09-24 16:13:00,
2013-09-24 12:14:00,74.0,74.0,29.85,North,0,0.0,0.0,100,0.13,,---,1.18,VWS V14.01,2013-09-24 16:14:00,
2013-09-24 12:16:00,74.0,74.0,29.85,North,0,0.0,0.0,100,0.13,,---,1.18,VWS V14.01,2013-09-24 16:16:00,
2013-09-24 12:19:00,74.0,74.0,29.85,North,0,0.0,1.0,100,0.13,,---,1.18,VWS V14.01,2013-09-24 16:19:00,
2013-09-24 12:20:00,74.0,74.0,29.85,North,0,0.0,1.0,100,0.13,,---,1.18,VWS V14.01,2013-09-24 16:20:00,
2013-09-24 12:21:00,74.0,74.0,29.85,North,0,0.0,1.0,100,0.14,,---,1.19,VWS V14.01,2013-09-24 16:21:00,
2013-09-24 12:22:00,74.0,74.0,29.85,North,0,0.0,1.0,100,0.14,,---,1.19,VWS V14.01,2013-09-24 16:22:00,
2013-09-24 12:25:00,74.0,74.0,29.85,North,0,0.0,1.0,100,0.14,,---,1.19,VWS V14.01,2013-09-24 16:25:00,
2013-09-24 12:26:00,74.0,74.0,29.85,North,0,0.0,1.0,100,0.14,,---,1.19,VWS V14.01,2013-09-24 16:26:00,
2013-09-24 12:27:00,74.0,74.0,29.85,North,0,0.0,1.0,100,0.14,,---,1.19,VWS V14.01,2013-09-24 16:27:00,
2013-09-24 12:31:00,74.0,74.0,29.85,North,0,0.0,1.0,100,0.15,,---,1.20,VWS V14.01,2013-09-24 16:31:00,
2013-09-24 12:32:00,74.0,74.0,29.85,North,0,0.0,1.0,100,0.15,,---,1.20,VWS V14.01,2013-09-24 16:32:00,
2013-09-24 12:33:00,74.0,74.0,29.84,North,0,0.0,1.0,100,0.15,,---,1.20,VWS V14.01,2013-09-24 16:33:00,
2013-09-24 12:34:00,74.0,74.0,29.84,North,0,0.0,1.0,100,0.15,,---,1.20,VWS V14.01,2013-09-24 16:34:00,
2013-09-24 12:37:00,74.2,74.2,29.84,North,0,0.0,1.0,100,0.16,,---,1.21,VWS V14.01,2013-09-24 16:37:00,
2013-09-24 12:39:00,74.2,74.2,29.84,North,0,0.0,2.0,100,0.16,,---,1.21,VWS V14.01,2013-09-24 16:39:00,
2013-09-24 12:40:00,74.2,74.2,29.84,North,0,0.0,2.0,100,0.16,,---,1.21,VWS V14.01,2013-09-24 16:40:00,
2013-09-24 12:43:00,74.2,74.2,29.84,North,0,2.0,4.0,100,0.17,,---,1.22,VWS V14.01,2013-09-24 16:43:00,
2013-09-24 12:44:00,74.4,74.4,29.84,North,0,0.0,4.0,100,0.17,,---,1.22,VWS V14.01,2013-09-24 16:44:00,
2013-09-24 12:46:00,74.4,74.4,29.84,North,0,0.0,4.0,100,0.18,,---,1.23,VWS V14.01,2013-09-24 16:46:00,
2013-09-24 12:48:00,74.4,74.4,29.84,North,0,0.0,4.0,100,0.18,,---,1.23,VWS V14.01,2013-09-24 16:48:00,
2013-09-24 12:49:00,74.6,74.6,29.83,North,0,0.0,4.0,100,0.19,,---,1.24,VWS V14.01,2013-09-24 16:49:00,
2013-09-24 12:50:00,74.6,74.6,29.83,North,0,4.0,5.0,100,0.19,,---,1.24,VWS V14.01,2013-09-24 16:50:00,
2013-09-24 12:51:00,74.6,74.6,29.83,North,0,0.0,5.0,100,0.19,,---,1.24,VWS V14.01,2013-09-24 16:51:00,
2013-09-24 12:53:00,74.6,74.6,29.83,North,0,1.0,5.0,100,0.20,,---,1.25,VWS V14.01,2013-09-24 16:53:00,
2013-09-24 12:54:00,74.6,74.6,29.83,North,0,1.0,5.0,100,0.20,,---,1.25,VWS V14.01,2013-09-24 16:54:00,
2013-09-24 12:55:00,74.6,74.6,29.83,North,0,0.0,5.0,100,0.20,,---,1.25,VWS V14.01,2013-09-24 16:55:00,
2013-09-24 12:56:00,74.6,74.6,29.83,North,0,0.0,5.0,100,0.20,,---,1.25,VWS V14.01,2013-09-24 16:56:00,
2013-09-24 12:57:00,74.6,74.6,29.83,North,0,0.0,5.0,100,0.21,,---,1.26,VWS V14.01,2013-09-24 16:57:00,
2013-09-24 12:58:00,74.6,74.6,29.83,North,0,0.0,5.0,100,0.21,,---,1.26,VWS V14.01,2013-09-24 16:58:00,
2013-09-24 13:00:00,74.6,74.6,29.83,North,0,0.0,5.0,100,0.21,,---,1.26,VWS V14.01,2013-09-24 17:00:00,
2013-09-24 13:02:00,74.6,74.6,29.83,North,0,0.0,5.0,100,0.22,,---,1.27,VWS V14.01,2013-09-24 17:02:00,
2013-09-24 13:03:00,74.7,74.7,29.82,North,0,0.0,5.0,100,0.22,,---,1.27,VWS V14.01,2013-09-24 17:03:00,
2013-09-24 13:05:00,74.7,74.7,29.82,North,0,0.0,0.0,100,0.12,,---,1.28,VWS V14.01,2013-09-24 17:05:00,
2013-09-24 13:06:00,74.7,74.7,29.82,North,0,0.0,0.0,100,0.12,,---,1.28,VWS V14.01,2013-09-24 17:06:00,
2013-09-24 13:08:00,74.7,74.7,29.82,North,0,0.0,0.0,100,0.13,,---,1.29,VWS V14.01,2013-09-24 17:08:00,
2013-09-24 13:09:00,74.7,74.7,29.82,North,0,1.0,5.0,100,0.13,,---,1.29,VWS V14.01,2013-09-24 17:09:00,
2013-09-24 13:11:00,74.7,74.7,29.82,North,0,0.0,5.0,100,0.14,,---,1.30,VWS V14.01,2013-09-24 17:11:00,
2013-09-24 13:12:00,74.7,74.7,29.82,North,0,0.0,5.0,100,0.14,,---,1.30,VWS V14.01,2013-09-24 17:12:00,
2013-09-24 13:15:00,74.7,74.7,29.82,North,0,0.0,5.0,100,0.15,,---,1.31,VWS V14.01,2013-09-24 17:15:00,
2013-09-24 13:16:00,74.7,74.7,29.82,North,0,0.0,5.0,100,0.15,,---,1.31,VWS V14.01,2013-09-24 17:16:00,
2013-09-24 13:17:00,74.7,74.7,29.82,North,0,0.0,5.0,100,0.16,,---,1.32,VWS V14.01,2013-09-24 17:17:00,
2013-09-24 13:18:00,74.7,74.7,29.83,North,0,0.0,5.0,100,0.16,,---,1.32,VWS V14.01,2013-09-24 17:18:00,
2013-09-24 13:20:00,74.7,74.7,29.83,North,0,0.0,5.0,100,0.16,,---,1.32,VWS V14.01,2013-09-24 17:20:00,
2013-09-24 13:22:00,74.9,74.9,29.83,North,0,0.0,5.0,100,0.17,,---,1.33,VWS V14.01,2013-09-24 17:22:00,
2013-09-24 13:23:00,74.9,74.9,29.83,North,0,0.0,5.0,100,0.17,,---,1.33,VWS V14.01,2013-09-24 17:23:00,
2013-09-24 13:24:00,74.9,74.9,29.83,North,0,0.0,5.0,100,0.17,,---,1.33,VWS V14.01,2013-09-24 17:24:00,
2013-09-24 13:26:00,74.9,74.9,29.83,North,0,0.0,5.0,100,0.18,,---,1.34,VWS V14.01,2013-09-24 17:26:00,
2013-09-24 13:28:00,74.9,74.9,29.83,North,0,0.0,5.0,100,0.18,,---,1.34,VWS V14.01,2013-09-24 17:28:00,
2013-09-24 13:30:00,74.9,74.9,29.83,North,0,0.0,5.0,100,0.18,,---,1.34,VWS V14.01,2013-09-24 17:30:00,
2013-09-24 13:32:00,74.9,74.9,29.83,North,0,0.0,5.0,100,0.19,,---,1.35,VWS V14.01,2013-09-24 17:32:00,
2013-09-24 13:33:00,74.9,74.9,29.83,North,0,0.0,5.0,100,0.19,,---,1.35,VWS V14.01,2013-09-24 17:33:00,
2013-09-24 13:35:00,74.9,74.9,29.81,North,0,0.0,5.0,100,0.19,,---,1.35,VWS V14.01,2013-09-24 17:35:00,
2013-09-24 13:37:00,74.9,74.9,29.81,North,0,0.0,5.0,100,0.20,,---,1.36,VWS V14.01,2013-09-24 17:37:00,
2013-09-24 13:39:00,74.9,74.9,29.81,North,0,0.0,5.0,100,0.20,,---,1.36,VWS V14.01,2013-09-24 17:39:00,
2013-09-24 13:40:00,74.9,74.9,29.81,North,0,0.0,5.0,100,0.21,,---,1.37,VWS V14.01,2013-09-24 17:40:00,
2013-09-24 13:41:00,74.9,74.9,29.81,North,0,0.0,5.0,100,0.21,,---,1.37,VWS V14.01,2013-09-24 17:41:00,
2013-09-24 13:42:00,74.9,74.9,29.81,North,0,0.0,5.0,100,0.21,,---,1.37,VWS V14.01,2013-09-24 17:42:00,
2013-09-24 13:43:00,74.9,74.9,29.81,North,0,0.0,5.0,100,0.21,,---,1.37,VWS V14.01,2013-09-24 17:43:00,
2013-09-24 13:45:00,74.9,74.9,29.81,North,0,0.0,5.0,100,0.22,,---,1.38,VWS V14.01,2013-09-24 17:45:00,
2013-09-24 13:46:00,74.9,74.9,29.81,North,0,0.0,5.0,100,0.22,,---,1.38,VWS V14.01,2013-09-24 17:46:00,
2013-09-24 13:48:00,74.9,74.9,29.80,North,0,0.0,6.0,100,0.23,,---,1.39,VWS V14.01,2013-09-24 17:48:00,
2013-09-24 13:49:00,74.9,74.9,29.80,North,0,0.0,6.0,100,0.23,,---,1.39,VWS V14.01,2013-09-24 17:49:00,
2013-09-24 13:50:00,74.9,74.9,29.80,North,0,0.0,6.0,100,0.23,,---,1.39,VWS V14.01,2013-09-24 17:50:00,
2013-09-24 13:52:00,74.9,74.9,29.80,North,0,0.0,6.0,100,0.24,,---,1.40,VWS V14.01,2013-09-24 17:52:00,
2013-09-24 13:54:00,74.9,74.9,29.80,North,0,0.0,6.0,100,0.24,,---,1.40,VWS V14.01,2013-09-24 17:54:00,
2013-09-24 13:55:00,74.7,74.7,29.80,North,0,0.0,6.0,100,0.24,,---,1.40,VWS V14.01,2013-09-24 17:55:00,
2013-09-24 13:57:00,74.7,74.7,29.80,North,0,1.0,6.0,100,0.24,,---,1.40,VWS V14.01,2013-09-24 17:57:00,
2013-09-24 13:59:00,74.7,74.7,29.80,North,0,0.0,6.0,100,0.25,,---,1.41,VWS V14.01,2013-09-24 17:59:00,
2013-09-24 14:02:00,74.7,74.7,29.80,North,0,0.0,6.0,100,0.25,,---,1.41,VWS V14.01,2013-09-24 18:02:00,
2013-09-24 14:03:00,74.7,74.7,29.81,North,0,0.0,6.0,100,0.25,,---,1.41,VWS V14.01,2013-09-24 18:03:00,
2013-09-24 14:04:00,74.7,74.7,29.81,North,0,0.0,6.0,100,0.25,,---,1.41,VWS V14.01,2013-09-24 18:04:00,
2013-09-24 14:06:00,74.7,74.7,29.81,North,0,0.0,0.0,100,0.13,,---,1.41,VWS V14.01,2013-09-24 18:06:00,
2013-09-24 14:07:00,74.7,74.7,29.81,North,0,0.0,0.0,100,0.13,,---,1.41,VWS V14.01,2013-09-24 18:07:00,
2013-09-24 14:09:00,74.7,74.7,29.81,North,0,0.0,0.0,100,0.13,,---,1.41,VWS V14.01,2013-09-24 18:09:00,
2013-09-24 14:10:00,74.7,74.7,29.81,North,0,0.0,0.0,100,0.13,,---,1.41,VWS V14.01,2013-09-24 18:10:00,
2013-09-24 14:11:00,74.7,74.7,29.81,North,0,0.0,0.0,100,0.13,,---,1.41,VWS V14.01,2013-09-24 18:11:00,
2013-09-24 14:12:00,74.7,74.7,29.81,North,0,0.0,0.0,100,0.14,,---,1.42,VWS V14.01,2013-09-24 18:12:00,
2013-09-24 14:14:00,74.7,74.7,29.81,North,0,0.0,0.0,100,0.14,,---,1.42,VWS V14.01,2013-09-24 18:14:00,
2013-09-24 14:15:00,74.7,74.7,29.81,North,0,0.0,0.0,100,0.14,,---,1.42,VWS V14.01,2013-09-24 18:15:00,
2013-09-24 14:16:00,74.9,74.9,29.81,North,0,0.0,0.0,100,0.14,,---,1.42,VWS V14.01,2013-09-24 18:16:00,
2013-09-24 14:18:00,74.9,74.9,29.81,North,0,0.0,0.0,100,0.14,,---,1.42,VWS V14.01,2013-09-24 18:18:00,
2013-09-24 14:19:00,74.9,74.9,29.81,North,0,0.0,0.0,100,0.14,,---,1.42,VWS V14.01,2013-09-24 18:19:00,
2013-09-24 14:21:00,74.9,74.9,29.81,North,0,0.0,0.0,100,0.14,,---,1.42,VWS V14.01,2013-09-24 18:21:00,
2013-09-24 14:22:00,74.9,74.9,29.81,North,0,0.0,0.0,100,0.14,,---,1.42,VWS V14.01,2013-09-24 18:22:00,
2013-09-24 14:24:00,74.9,74.9,29.81,North,0,0.0,0.0,100,0.14,,---,1.42,VWS V14.01,2013-09-24 18:24:00,
2013-09-24 14:26:00,75.1,75.1,29.81,North,0,0.0,0.0,100,0.14,,---,1.42,VWS V14.01,2013-09-24 18:26:00,
2013-09-24 14:29:00,75.1,75.1,29.81,North,0,0.0,3.0,100,0.14,,---,1.42,VWS V14.01,2013-09-24 18:29:00,
2013-09-24 14:33:00,75.1,75.1,29.81,North,0,0.0,3.0,100,0.14,,---,1.42,VWS V14.01,2013-09-24 18:33:00,
2013-09-24 14:34:00,75.1,75.1,29.81,North,0,0.0,3.0,100,0.14,,---,1.42,VWS V14.01,2013-09-24 18:34:00,
2013-09-24 14:35:00,75.1,75.1,29.81,North,0,0.0,3.0,100,0.14,,---,1.42,VWS V14.01,2013-09-24 18:35:00,
2013-09-24 14:36:00,75.3,75.3,29.81,North,0,0.0,3.0,100,0.14,,---,1.42,VWS V14.01,2013-09-24 18:36:00,
2013-09-24 14:39:00,75.3,75.3,29.81,North,0,0.0,3.0,100,0.14,,---,1.42,VWS V14.01,2013-09-24 18:39:00,
2013-09-24 14:40:00,75.3,75.3,29.81,North,0,0.0,4.0,100,0.14,,---,1.42,VWS V14.01,2013-09-24 18:40:00,
2013-09-24 14:41:00,75.3,75.3,29.81,North,0,4.0,6.0,100,0.14,,---,1.42,VWS V14.01,2013-09-24 18:41:00,
2013-09-24 14:42:00,75.3,75.3,29.81,North,0,0.0,6.0,100,0.14,,---,1.42,VWS V14.01,2013-09-24 18:42:00,
2013-09-24 14:43:00,75.3,75.3,29.81,North,0,0.0,6.0,100,0.14,,---,1.42,VWS V14.01,2013-09-24 18:43:00,
2013-09-24 14:44:00,75.3,75.3,29.81,North,0,0.0,6.0,100,0.14,,---,1.42,VWS V14.01,2013-09-24 18:44:00,
2013-09-24 14:47:00,75.3,75.3,29.81,North,0,0.0,6.0,100,0.14,,---,1.42,VWS V14.01,2013-09-24 18:47:00,
2013-09-24 14:48:00,75.1,75.1,29.81,North,0,0.0,6.0,100,0.14,,---,1.42,VWS V14.01,2013-09-24 18:48:00,
2013-09-24 14:49:00,75.1,75.1,29.81,North,0,3.0,6.0,100,0.14,,---,1.42,VWS V14.01,2013-09-24 18:49:00,
2013-09-24 14:50:00,75.1,75.1,29.81,North,0,1.0,6.0,100,0.14,,---,1.42,VWS V14.01,2013-09-24 18:50:00,
2013-09-24 14:52:00,75.1,75.1,29.81,North,0,0.0,6.0,100,0.14,,---,1.42,VWS V14.01,2013-09-24 18:52:00,
2013-09-24 14:53:00,75.1,75.1,29.81,North,0,0.0,6.0,100,0.14,,---,1.42,VWS V14.01,2013-09-24 18:53:00,
2013-09-24 14:54:00,75.1,75.1,29.81,North,0,0.0,6.0,100,0.14,,---,1.42,VWS V14.01,2013-09-24 18:54:00,
2013-09-24 14:55:00,75.1,75.1,29.81,North,0,0.0,6.0,100,0.14,,---,1.42,VWS V14.01,2013-09-24 18:55:00,
2013-09-24 14:56:00,75.1,75.1,29.81,North,0,0.0,6.0,100,0.14,,---,1.42,VWS V14.01,2013-09-24 18:56:00,
2013-09-24 14:58:00,75.1,75.1,29.81,North,0,0.0,6.0,100,0.14,,---,1.42,VWS V14.01,2013-09-24 18:58:00,
2013-09-24 14:59:00,75.1,75.1,29.81,North,0,0.0,6.0,100,0.14,,---,1.42,VWS V14.01,2013-09-24 18:59:00,
2013-09-24 15:00:00,75.1,75.1,29.81,North,0,0.0,6.0,100,0.14,,---,1.42,VWS V14.01,2013-09-24 19:00:00,
2013-09-24 15:02:00,75.1,75.1,29.81,North,0,0.0,6.0,100,0.15,,---,1.43,VWS V14.01,2013-09-24 19:02:00,
2013-09-24 15:03:00,75.1,75.1,29.80,North,0,0.0,6.0,100,0.15,,---,1.43,VWS V14.01,2013-09-24 19:03:00,
2013-09-24 15:05:00,75.3,75.3,29.80,North,0,0.0,0.0,100,0.02,,---,1.43,VWS V14.01,2013-09-24 19:05:00,
2013-09-24 15:06:00,75.3,75.3,29.80,North,0,0.0,0.0,100,0.02,,---,1.43,VWS V14.01,2013-09-24 19:06:00,
2013-09-24 15:08:00,75.3,75.3,29.80,North,0,0.0,0.0,100,0.02,,---,1.43,VWS V14.01,2013-09-24 19:08:00,
2013-09-24 15:10:00,75.3,75.3,29.80,North,0,0.0,0.0,100,0.02,,---,1.43,VWS V14.01,2013-09-24 19:10:00,
2013-09-24 15:13:00,75.3,75.3,29.80,North,0,1.0,1.0,100,0.02,,---,1.43,VWS V14.01,2013-09-24 19:13:00,
2013-09-24 15:14:00,75.3,75.3,29.80,North,0,0.0,3.0,100,0.02,,---,1.43,VWS V14.01,2013-09-24 19:14:00,
2013-09-24 15:16:00,75.3,75.3,29.80,North,0,0.0,3.0,100,0.03,,---,1.44,VWS V14.01,2013-09-24 19:16:00,
2013-09-24 15:19:00,75.4,75.4,29.80,North,0,0.0,3.0,100,0.03,,---,1.44,VWS V14.01,2013-09-24 19:19:00,
2013-09-24 15:22:00,75.4,75.4,29.80,North,0,0.0,3.0,100,0.03,,---,1.44,VWS V14.01,2013-09-24 19:22:00,
2013-09-24 15:23:00,75.4,75.4,29.80,North,0,0.0,3.0,100,0.03,,---,1.44,VWS V14.01,2013-09-24 19:23:00,
2013-09-24 15:24:00,75.4,75.4,29.80,North,0,0.0,3.0,100,0.03,,---,1.44,VWS V14.01,2013-09-24 19:24:00,
2013-09-24 15:25:00,75.4,75.4,29.80,North,0,0.0,3.0,100,0.03,,---,1.44,VWS V14.01,2013-09-24 19:25:00,
2013-09-24 15:27:00,75.4,75.4,29.80,North,0,0.0,3.0,100,0.03,,---,1.44,VWS V14.01,2013-09-24 19:27:00,
2013-09-24 15:28:00,75.4,75.4,29.80,North,0,0.0,3.0,100,0.03,,---,1.44,VWS V14.01,2013-09-24 19:28:00,
2013-09-24 15:31:00,75.4,75.4,29.80,North,0,0.0,3.0,100,0.03,,---,1.44,VWS V14.01,2013-09-24 19:31:00,
2013-09-24 15:32:00,75.4,75.4,29.80,North,0,0.0,3.0,100,0.03,,---,1.44,VWS V14.01,2013-09-24 19:32:00,
2013-09-24 15:33:00,75.4,75.4,29.80,North,0,0.0,3.0,100,0.03,,---,1.44,VWS V14.01,2013-09-24 19:33:00,
2013-09-24 15:34:00,75.4,75.4,29.80,North,0,0.0,3.0,100,0.03,,---,1.44,VWS V14.01,2013-09-24 19:34:00,
2013-09-24 15:36:00,75.4,75.4,29.80,North,0,0.0,3.0,100,0.04,,---,1.45,VWS V14.01,2013-09-24 19:36:00,
2013-09-24 15:39:00,75.4,75.4,29.80,North,0,0.0,3.0,100,0.04,,---,1.45,VWS V14.01,2013-09-24 19:39:00,
2013-09-24 15:40:00,75.4,75.4,29.80,North,0,0.0,3.0,100,0.04,,---,1.45,VWS V14.01,2013-09-24 19:40:00,
2013-09-24 15:42:00,75.4,75.4,29.80,North,0,0.0,3.0,100,0.04,,---,1.45,VWS V14.01,2013-09-24 19:42:00,
2013-09-24 15:45:00,75.4,75.4,29.80,North,0,0.0,3.0,100,0.04,,---,1.45,VWS V14.01,2013-09-24 19:45:00,
2013-09-24 15:47:00,75.4,75.4,29.80,North,0,0.0,3.0,100,0.04,,---,1.45,VWS V14.01,2013-09-24 19:47:00,
2013-09-24 15:48:00,75.4,75.4,29.80,North,0,0.0,3.0,100,0.04,,---,1.45,VWS V14.01,2013-09-24 19:48:00,
2013-09-24 15:50:00,75.4,75.4,29.81,North,0,0.0,3.0,100,0.04,,---,1.45,VWS V14.01,2013-09-24 19:50:00,
2013-09-24 15:52:00,75.3,75.3,29.81,North,0,0.0,3.0,100,0.04,,---,1.45,VWS V14.01,2013-09-24 19:52:00,
2013-09-24 15:53:00,75.3,75.3,29.81,North,0,0.0,3.0,100,0.04,,---,1.45,VWS V14.01,2013-09-24 19:53:00,
2013-09-24 15:55:00,75.3,75.3,29.81,North,0,0.0,3.0,100,0.04,,---,1.45,VWS V14.01,2013-09-24 19:55:00,
2013-09-24 15:59:00,75.3,75.3,29.81,North,0,0.0,3.0,100,0.04,,---,1.45,VWS V14.01,2013-09-24 19:59:00,
2013-09-24 16:00:00,75.3,75.3,29.81,North,0,0.0,3.0,100,0.04,,---,1.45,VWS V14.01,2013-09-24 20:00:00,
2013-09-24 16:04:00,75.3,75.3,29.81,North,0,0.0,3.0,100,0.04,,---,1.45,VWS V14.01,2013-09-24 20:04:00,
2013-09-24 16:05:00,75.3,75.3,29.81,North,0,0.0,0.0,100,0.02,,---,1.45,VWS V14.01,2013-09-24 20:05:00,
2013-09-24 16:07:00,75.3,75.3,29.81,North,0,0.0,0.0,100,0.02,,---,1.45,VWS V14.01,2013-09-24 20:07:00,
2013-09-24 16:08:00,75.3,75.3,29.81,North,0,0.0,0.0,100,0.02,,---,1.45,VWS V14.01,2013-09-24 20:08:00,
2013-09-24 16:09:00,75.3,75.3,29.81,North,0,0.0,0.0,100,0.02,,---,1.45,VWS V14.01,2013-09-24 20:09:00,
2013-09-24 16:10:00,75.3,75.3,29.81,North,0,0.0,0.0,100,0.02,,---,1.45,VWS V14.01,2013-09-24 20:10:00,
2013-09-24 16:11:00,75.3,75.3,29.81,North,0,0.0,0.0,100,0.02,,---,1.45,VWS V14.01,2013-09-24 20:11:00,
2013-09-24 16:12:00,75.4,75.4,29.81,North,0,0.0,0.0,100,0.02,,---,1.45,VWS V14.01,2013-09-24 20:12:00,
2013-09-24 16:15:00,75.4,75.4,29.81,North,0,0.0,0.0,100,0.02,,---,1.45,VWS V14.01,2013-09-24 20:15:00,
2013-09-24 16:16:00,75.4,75.4,29.81,North,0,0.0,0.0,100,0.02,,---,1.45,VWS V14.01,2013-09-24 20:16:00,
2013-09-24 16:17:00,75.4,75.4,29.81,North,0,0.0,0.0,100,0.02,,---,1.45,VWS V14.01,2013-09-24 20:17:00,
2013-09-24 16:18:00,75.4,75.4,29.80,North,0,0.0,0.0,100,0.02,,---,1.45,VWS V14.01,2013-09-24 20:18:00,
2013-09-24 16:20:00,75.4,75.4,29.80,North,0,0.0,0.0,100,0.02,,---,1.45,VWS V14.01,2013-09-24 20:20:00,
2013-09-24 16:21:00,75.4,75.4,29.80,North,0,0.0,0.0,100,0.02,,---,1.45,VWS V14.01,2013-09-24 20:21:00,
2013-09-24 16:23:00,75.4,75.4,29.80,North,0,0.0,0.0,100,0.02,,---,1.45,VWS V14.01,2013-09-24 20:23:00,
2013-09-24 16:25:00,75.6,75.6,29.80,North,0,0.0,0.0,100,0.02,,---,1.45,VWS V14.01,2013-09-24 20:25:00,
2013-09-24 16:26:00,75.6,75.6,29.80,North,0,0.0,0.0,100,0.02,,---,1.45,VWS V14.01,2013-09-24 20:26:00,
2013-09-24 16:28:00,75.6,75.6,29.80,North,0,0.0,0.0,100,0.02,,---,1.45,VWS V14.01,2013-09-24 20:28:00,
2013-09-24 16:29:00,75.6,75.6,29.80,North,0,0.0,0.0,100,0.02,,---,1.45,VWS V14.01,2013-09-24 20:29:00,
2013-09-24 16:30:00,75.8,75.8,29.80,North,0,0.0,0.0,100,0.02,,---,1.45,VWS V14.01,2013-09-24 20:30:00,
2013-09-24 16:31:00,75.8,75.8,29.80,North,0,0.0,0.0,100,0.02,,---,1.45,VWS V14.01,2013-09-24 20:31:00,
2013-09-24 16:32:00,75.8,75.8,29.80,North,0,0.0,0.0,100,0.02,,---,1.45,VWS V14.01,2013-09-24 20:32:00,
2013-09-24 16:33:00,75.8,75.8,29.79,North,0,0.0,0.0,100,0.02,,---,1.45,VWS V14.01,2013-09-24 20:33:00,
2013-09-24 16:36:00,76.0,76.0,29.79,North,0,0.0,0.0,100,0.02,,---,1.45,VWS V14.01,2013-09-24 20:36:00,
2013-09-24 16:37:00,76.0,76.0,29.79,North,0,0.0,0.0,100,0.02,,---,1.45,VWS V14.01,2013-09-24 20:37:00,
2013-09-24 16:38:00,76.0,76.0,29.79,North,0,0.0,0.0,100,0.02,,---,1.45,VWS V14.01,2013-09-24 20:38:00,
2013-09-24 16:42:00,76.1,76.1,29.79,North,0,0.0,0.0,100,0.02,,---,1.45,VWS V14.01,2013-09-24 20:42:00,
2013-09-24 16:43:00,76.1,76.1,29.79,North,0,0.0,0.0,100,0.02,,---,1.45,VWS V14.01,2013-09-24 20:43:00,
2013-09-24 16:44:00,76.1,76.1,29.79,North,0,0.0,0.0,100,0.02,,---,1.45,VWS V14.01,2013-09-24 20:44:00,
2013-09-24 16:48:00,76.3,76.3,29.79,North,0,3.0,5.0,100,0.02,,---,1.45,VWS V14.01,2013-09-24 20:48:00,
2013-09-24 16:49:00,76.3,76.3,29.78,North,0,0.0,5.0,100,0.02,,---,1.45,VWS V14.01,2013-09-24 20:49:00,
2013-09-24 16:50:00,76.3,76.3,29.78,North,0,0.0,5.0,100,0.02,,---,1.45,VWS V14.01,2013-09-24 20:50:00,
2013-09-24 16:54:00,76.3,76.3,29.78,North,0,0.0,5.0,100,0.02,,---,1.45,VWS V14.01,2013-09-24 20:54:00,
2013-09-24 16:56:00,76.3,76.3,29.78,North,0,0.0,5.0,100,0.02,,---,1.45,VWS V14.01,2013-09-24 20:56:00,
2013-09-24 16:58:00,76.3,76.3,29.78,North,0,0.0,5.0,100,0.02,,---,1.45,VWS V14.01,2013-09-24 20:58:00,
2013-09-24 16:59:00,76.3,76.3,29.78,North,0,0.0,5.0,100,0.02,,---,1.45,VWS V14.01,2013-09-24 20:59:00,
2013-09-24 17:01:00,76.3,76.3,29.78,North,0,0.0,5.0,100,0.02,,---,1.45,VWS V14.01,2013-09-24 21:01:00,
2013-09-24 17:03:00,76.3,76.3,29.78,North,0,0.0,5.0,100,0.02,,---,1.45,VWS V14.01,2013-09-24 21:03:00,
2013-09-24 17:04:00,76.3,76.3,29.78,North,0,0.0,5.0,100,0.02,,---,1.45,VWS V14.01,2013-09-24 21:04:00,
2013-09-24 17:06:00,76.3,76.3,29.78,North,0,0.0,0.0,100,0.00,,---,1.45,VWS V14.01,2013-09-24 21:06:00,
2013-09-24 17:09:00,76.3,76.3,29.78,North,0,0.0,0.0,100,0.00,,---,1.45,VWS V14.01,2013-09-24 21:09:00,
2013-09-24 17:10:00,76.3,76.3,29.78,North,0,0.0,0.0,100,0.00,,---,1.45,VWS V14.01,2013-09-24 21:10:00,
2013-09-24 17:11:00,76.3,76.3,29.78,North,0,0.0,0.0,100,0.00,,---,1.45,VWS V14.01,2013-09-24 21:11:00,
2013-09-24 17:13:00,76.3,76.3,29.78,North,0,0.0,0.0,100,0.00,,---,1.45,VWS V14.01,2013-09-24 21:13:00,
2013-09-24 17:15:00,76.1,76.1,29.78,North,0,0.0,0.0,100,0.00,,---,1.45,VWS V14.01,2013-09-24 21:15:00,
2013-09-24 17:16:00,76.1,76.1,29.78,North,0,0.0,0.0,100,0.00,,---,1.45,VWS V14.01,2013-09-24 21:16:00,
2013-09-24 17:17:00,76.1,76.1,29.78,North,0,0.0,0.0,100,0.00,,---,1.45,VWS V14.01,2013-09-24 21:17:00,
2013-09-24 17:19:00,76.1,76.1,29.79,North,0,0.0,0.0,100,0.00,,---,1.45,VWS V14.01,2013-09-24 21:19:00,
2013-09-24 17:21:00,76.1,76.1,29.79,North,0,0.0,0.0,100,0.00,,---,1.45,VWS V14.01,2013-09-24 21:21:00,
2013-09-24 17:23:00,76.1,76.1,29.79,North,0,0.0,0.0,100,0.00,,---,1.45,VWS V14.01,2013-09-24 21:23:00,
2013-09-24 17:25:00,76.1,76.1,29.79,North,0,0.0,2.0,100,0.00,,---,1.45,VWS V14.01,2013-09-24 21:25:00,
2013-09-24 17:27:00,76.0,76.0,29.79,North,0,0.0,2.0,100,0.00,,---,1.45,VWS V14.01,2013-09-24 21:27:00,
2013-09-24 17:28:00,76.0,76.0,29.79,North,0,0.0,2.0,100,0.00,,---,1.45,VWS V14.01,2013-09-24 21:28:00,
2013-09-24 17:29:00,76.0,76.0,29.79,North,0,0.0,2.0,100,0.00,,---,1.45,VWS V14.01,2013-09-24 21:29:00,
2013-09-24 17:31:00,76.0,76.0,29.79,North,0,0.0,2.0,100,0.00,,---,1.45,VWS V14.01,2013-09-24 21:31:00,
2013-09-24 17:32:00,76.0,76.0,29.79,North,0,0.0,2.0,100,0.00,,---,1.45,VWS V14.01,2013-09-24 21:32:00,
2013-09-24 17:34:00,76.0,76.0,29.79,North,0,0.0,2.0,100,0.00,,---,1.45,VWS V14.01,2013-09-24 21:34:00,
2013-09-24 17:39:00,76.0,76.0,29.79,North,0,0.0,2.0,100,0.00,,---,1.45,VWS V14.01,2013-09-24 21:39:00,
2013-09-24 17:40:00,76.0,76.0,29.79,North,0,0.0,2.0,100,0.00,,---,1.45,VWS V14.01,2013-09-24 21:40:00,
2013-09-24 17:44:00,76.0,76.0,29.79,North,0,0.0,2.0,100,0.00,,---,1.45,VWS V14.01,2013-09-24 21:44:00,
2013-09-24 17:45:00,76.0,76.0,29.79,North,0,0.0,2.0,100,0.00,,---,1.45,VWS V14.01,2013-09-24 21:45:00,
2013-09-24 17:46:00,76.0,76.0,29.79,North,0,0.0,2.0,100,0.00,,---,1.45,VWS V14.01,2013-09-24 21:46:00,
2013-09-24 17:47:00,76.0,76.0,29.79,North,0,0.0,2.0,100,0.00,,---,1.45,VWS V14.01,2013-09-24 21:47:00,
2013-09-24 17:50:00,76.0,76.0,29.78,North,0,0.0,2.0,100,0.00,,---,1.45,VWS V14.01,2013-09-24 21:50:00,
2013-09-24 17:51:00,76.0,76.0,29.78,North,0,0.0,2.0,100,0.00,,---,1.45,VWS V14.01,2013-09-24 21:51:00,
2013-09-24 17:52:00,76.0,76.0,29.78,North,0,0.0,2.0,100,0.00,,---,1.45,VWS V14.01,2013-09-24 21:52:00,
2013-09-24 17:55:00,76.0,76.0,29.78,North,0,0.0,2.0,100,0.00,,---,1.45,VWS V14.01,2013-09-24 21:55:00,
2013-09-24 17:56:00,76.0,76.0,29.78,North,0,0.0,2.0,100,0.00,,---,1.45,VWS V14.01,2013-09-24 21:56:00,
2013-09-24 17:58:00,76.0,76.0,29.78,North,0,0.0,2.0,100,0.00,,---,1.45,VWS V14.01,2013-09-24 21:58:00,
2013-09-24 17:59:00,76.1,76.1,29.78,North,0,0.0,2.0,100,0.00,,---,1.45,VWS V14.01,2013-09-24 21:59:00,
2013-09-24 18:01:00,76.1,76.1,29.78,North,0,0.0,2.0,100,0.00,,---,1.45,VWS V14.01,2013-09-24 22:01:00,
2013-09-24 18:02:00,76.1,76.1,29.78,North,0,0.0,2.0,100,0.00,,---,1.45,VWS V14.01,2013-09-24 22:02:00,
2013-09-24 18:04:00,76.1,76.1,29.78,North,0,0.0,0.0,100,0.00,,---,1.45,VWS V14.01,2013-09-24 22:04:00,
2013-09-24 18:05:00,76.1,76.1,29.78,North,0,0.0,0.0,100,0.00,,---,1.45,VWS V14.01,2013-09-24 22:05:00,
2013-09-24 18:07:00,76.1,76.1,29.78,North,0,0.0,0.0,100,0.00,,---,1.45,VWS V14.01,2013-09-24 22:07:00,
2013-09-24 18:08:00,76.1,76.1,29.78,North,0,0.0,0.0,100,0.00,,---,1.45,VWS V14.01,2013-09-24 22:08:00,
2013-09-24 18:10:00,76.1,76.1,29.78,North,0,0.0,0.0,100,0.00,,---,1.45,VWS V14.01,2013-09-24 22:10:00,
2013-09-24 18:11:00,76.1,76.1,29.78,North,0,0.0,0.0,100,0.00,,---,1.45,VWS V14.01,2013-09-24 22:11:00,
2013-09-24 18:13:00,76.1,76.1,29.78,North,0,0.0,0.0,100,0.00,,---,1.45,VWS V14.01,2013-09-24 22:13:00,
2013-09-24 18:15:00,76.1,76.1,29.78,North,0,0.0,0.0,100,0.00,,---,1.45,VWS V14.01,2013-09-24 22:15:00,
2013-09-24 18:16:00,76.1,76.1,29.78,North,0,0.0,0.0,100,0.00,,---,1.45,VWS V14.01,2013-09-24 22:16:00,
2013-09-24 18:18:00,76.1,76.1,29.78,North,0,0.0,0.0,100,0.00,,---,1.45,VWS V14.01,2013-09-24 22:18:00,
2013-09-24 18:19:00,76.1,76.1,29.77,North,0,0.0,0.0,100,0.00,,---,1.45,VWS V14.01,2013-09-24 22:19:00,
2013-09-24 18:20:00,76.1,76.1,29.77,North,0,0.0,0.0,100,0.00,,---,1.45,VWS V14.01,2013-09-24 22:20:00,
2013-09-24 18:21:00,76.1,76.1,29.77,North,0,0.0,0.0,100,0.00,,---,1.45,VWS V14.01,2013-09-24 22:21:00,
2013-09-24 18:22:00,76.1,76.1,29.77,North,0,0.0,0.0,100,0.00,,---,1.45,VWS V14.01,2013-09-24 22:22:00,
2013-09-24 18:23:00,76.1,76.1,29.77,North,0,0.0,0.0,100,0.00,,---,1.45,VWS V14.01,2013-09-24 22:23:00,
2013-09-24 18:24:00,76.1,76.1,29.77,North,0,0.0,0.0,100,0.00,,---,1.45,VWS V14.01,2013-09-24 22:24:00,
2013-09-24 18:26:00,76.1,76.1,29.77,North,0,0.0,0.0,100,0.00,,---,1.45,VWS V14.01,2013-09-24 22:26:00,
2013-09-24 18:27:00,76.1,76.1,29.77,North,0,0.0,0.0,100,0.00,,---,1.45,VWS V14.01,2013-09-24 22:27:00,
2013-09-24 18:28:00,76.1,76.1,29.77,North,0,0.0,0.0,100,0.00,,---,1.45,VWS V14.01,2013-09-24 22:28:00,
2013-09-24 18:30:00,76.3,76.3,29.77,North,0,0.0,0.0,100,0.00,,---,1.45,VWS V14.01,2013-09-24 22:30:00,
2013-09-24 18:32:00,76.3,76.3,29.77,North,0,0.0,0.0,100,0.00,,---,1.45,VWS V14.01,2013-09-24 22:32:00,
2013-09-24 18:34:00,76.3,76.3,29.78,North,0,0.0,0.0,100,0.00,,---,1.45,VWS V14.01,2013-09-24 22:34:00,
2013-09-24 18:35:00,76.3,76.3,29.78,North,0,0.0,0.0,100,0.00,,---,1.45,VWS V14.01,2013-09-24 22:35:00,
2013-09-24 18:37:00,76.3,76.3,29.78,North,0,0.0,2.0,100,0.00,,---,1.45,VWS V14.01,2013-09-24 22:37:00,
2013-09-24 18:38:00,76.3,76.3,29.78,North,0,0.0,4.0,100,0.00,,---,1.45,VWS V14.01,2013-09-24 22:38:00,
2013-09-24 18:40:00,76.3,76.3,29.78,North,0,0.0,4.0,100,0.00,,---,1.45,VWS V14.01,2013-09-24 22:40:00,
2013-09-24 18:41:00,76.3,76.3,29.78,North,0,0.0,4.0,100,0.00,,---,1.45,VWS V14.01,2013-09-24 22:41:00,
2013-09-24 18:43:00,76.3,76.3,29.78,North,0,0.0,5.0,100,0.00,,---,1.45,VWS V14.01,2013-09-24 22:43:00,
2013-09-24 18:45:00,76.3,76.3,29.78,North,0,0.0,5.0,100,0.00,,---,1.45,VWS V14.01,2013-09-24 22:45:00,
2013-09-24 18:46:00,76.3,76.3,29.78,North,0,0.0,5.0,100,0.00,,---,1.45,VWS V14.01,2013-09-24 22:46:00,
2013-09-24 18:48:00,76.3,76.3,29.78,North,0,0.0,5.0,100,0.00,,---,1.45,VWS V14.01,2013-09-24 22:48:00,
2013-09-24 18:50:00,76.3,76.3,29.78,North,0,0.0,5.0,100,0.00,,---,1.45,VWS V14.01,2013-09-24 22:50:00,
2013-09-24 18:51:00,76.3,76.3,29.78,North,0,0.0,5.0,100,0.00,,---,1.45,VWS V14.01,2013-09-24 22:51:00,
2013-09-24 18:53:00,76.3,76.3,29.78,North,0,0.0,5.0,100,0.00,,---,1.45,VWS V14.01,2013-09-24 22:53:00,
2013-09-24 18:55:00,76.3,76.3,29.78,North,0,0.0,5.0,100,0.00,,---,1.45,VWS V14.01,2013-09-24 22:55:00,
2013-09-24 18:57:00,76.3,76.3,29.78,North,0,0.0,5.0,100,0.00,,---,1.45,VWS V14.01,2013-09-24 22:57:00,
2013-09-24 18:59:00,76.3,76.3,29.78,North,0,0.0,5.0,100,0.00,,---,1.45,VWS V14.01,2013-09-24 22:59:00,
2013-09-24 19:00:00,76.3,76.3,29.78,North,0,0.0,5.0,100,0.00,,---,1.45,VWS V14.01,2013-09-24 23:00:00,
2013-09-24 19:01:00,76.3,76.3,29.78,North,0,0.0,5.0,100,0.00,,---,1.45,VWS V14.01,2013-09-24 23:01:00,
2013-09-24 19:04:00,76.3,76.3,29.78,North,0,0.0,5.0,100,0.00,,---,1.45,VWS V14.01,2013-09-24 23:04:00,
2013-09-24 19:05:00,76.3,76.3,29.78,North,0,0.0,0.0,100,0.00,,---,1.45,VWS V14.01,2013-09-24 23:05:00,
2013-09-24 19:06:00,76.3,76.3,29.78,North,0,0.0,0.0,100,0.00,,---,1.45,VWS V14.01,2013-09-24 23:06:00,
2013-09-24 19:09:00,76.3,76.3,29.78,North,0,0.0,0.0,100,0.00,,---,1.45,VWS V14.01,2013-09-24 23:09:00,
2013-09-24 19:10:00,76.3,76.3,29.78,North,0,0.0,0.0,100,0.00,,---,1.45,VWS V14.01,2013-09-24 23:10:00,
2013-09-24 19:11:00,76.3,76.3,29.78,North,0,0.0,0.0,100,0.00,,---,1.45,VWS V14.01,2013-09-24 23:11:00,
2013-09-24 19:13:00,76.5,76.5,29.78,North,0,0.0,0.0,100,0.00,,---,1.45,VWS V14.01,2013-09-24 23:13:00,
2013-09-24 19:14:00,76.5,76.5,29.78,North,0,0.0,0.0,100,0.00,,---,1.45,VWS V14.01,2013-09-24 23:14:00,
2013-09-24 19:15:00,76.5,76.5,29.78,North,0,0.0,0.0,100,0.00,,---,1.45,VWS V14.01,2013-09-24 23:15:00,
2013-09-24 19:17:00,76.5,76.5,29.78,North,0,0.0,0.0,100,0.00,,---,1.45,VWS V14.01,2013-09-24 23:17:00,
2013-09-24 19:18:00,76.5,76.5,29.78,North,0,0.0,0.0,100,0.00,,---,1.45,VWS V14.01,2013-09-24 23:18:00,
2013-09-24 19:19:00,76.5,76.5,29.78,North,0,0.0,0.0,100,0.00,,---,1.45,VWS V14.01,2013-09-24 23:19:00,
2013-09-24 19:21:00,76.5,76.5,29.78,North,0,0.0,0.0,100,0.00,,---,1.45,VWS V14.01,2013-09-24 23:21:00,
2013-09-24 19:23:00,76.5,76.5,29.78,North,0,0.0,0.0,100,0.00,,---,1.45,VWS V14.01,2013-09-24 23:23:00,
2013-09-24 19:24:00,76.5,76.5,29.78,North,0,0.0,0.0,100,0.00,,---,1.45,VWS V14.01,2013-09-24 23:24:00,
2013-09-24 19:25:00,76.5,76.5,29.78,North,0,0.0,0.0,100,0.00,,---,1.45,VWS V14.01,2013-09-24 23:25:00,
2013-09-24 19:26:00,76.5,76.5,29.78,North,0,0.0,0.0,100,0.00,,---,1.45,VWS V14.01,2013-09-24 23:26:00,
2013-09-24 19:27:00,76.5,76.5,29.78,North,0,0.0,0.0,100,0.00,,---,1.45,VWS V14.01,2013-09-24 23:27:00,
2013-09-24 19:28:00,76.5,76.5,29.78,North,0,0.0,0.0,100,0.00,,---,1.45,VWS V14.01,2013-09-24 23:28:00,
2013-09-24 19:29:00,76.5,76.5,29.78,North,0,0.0,0.0,100,0.00,,---,1.45,VWS V14.01,2013-09-24 23:29:00,
2013-09-24 19:32:00,76.3,76.3,29.78,North,0,0.0,0.0,100,0.00,,---,1.45,VWS V14.01,2013-09-24 23:32:00,
2013-09-24 19:34:00,76.3,76.3,29.79,North,0,0.0,0.0,100,0.00,,---,1.45,VWS V14.01,2013-09-24 23:34:00,
2013-09-24 19:35:00,76.3,76.3,29.79,North,0,0.0,0.0,100,0.00,,---,1.45,VWS V14.01,2013-09-24 23:35:00,
2013-09-24 19:36:00,76.1,76.1,29.79,North,0,0.0,0.0,100,0.00,,---,1.45,VWS V14.01,2013-09-24 23:36:00,
2013-09-24 19:37:00,76.1,76.1,29.79,North,0,0.0,0.0,100,0.00,,---,1.45,VWS V14.01,2013-09-24 23:37:00,
2013-09-24 19:39:00,76.1,76.1,29.79,North,0,0.0,0.0,100,0.00,,---,1.45,VWS V14.01,2013-09-24 23:39:00,
2013-09-24 19:40:00,76.1,76.1,29.79,North,0,0.0,0.0,100,0.00,,---,1.45,VWS V14.01,2013-09-24 23:40:00,
2013-09-24 19:42:00,76.1,76.1,29.79,North,0,0.0,0.0,100,0.00,,---,1.45,VWS V14.01,2013-09-24 23:42:00,
2013-09-24 19:43:00,76.0,76.0,29.79,North,0,0.0,0.0,100,0.00,,---,1.45,VWS V14.01,2013-09-24 23:43:00,
2013-09-24 19:44:00,76.0,76.0,29.79,North,0,0.0,0.0,100,0.00,,---,1.45,VWS V14.01,2013-09-24 23:44:00,
2013-09-24 19:45:00,76.0,76.0,29.79,North,0,0.0,0.0,100,0.00,,---,1.45,VWS V14.01,2013-09-24 23:45:00,
2013-09-24 19:47:00,76.0,76.0,29.79,North,0,0.0,3.0,100,0.00,,---,1.45,VWS V14.01,2013-09-24 23:47:00,
2013-09-24 19:48:00,76.0,76.0,29.80,North,0,0.0,3.0,100,0.00,,---,1.45,VWS V14.01,2013-09-24 23:48:00,
2013-09-24 19:51:00,76.0,76.0,29.80,North,0,0.0,3.0,100,0.00,,---,1.45,VWS V14.01,2013-09-24 23:51:00,
2013-09-24 19:53:00,76.0,76.0,29.80,North,0,0.0,3.0,100,0.00,,---,1.45,VWS V14.01,2013-09-24 23:53:00,
2013-09-24 19:54:00,76.0,76.0,29.80,North,0,0.0,3.0,100,0.00,,---,1.45,VWS V14.01,2013-09-24 23:54:00,
2013-09-24 19:57:00,76.0,76.0,29.80,North,0,0.0,3.0,100,0.00,,---,1.45,VWS V14.01,2013-09-24 23:57:00,
2013-09-24 19:59:00,75.8,75.8,29.80,North,0,0.0,3.0,100,0.01,,---,1.46,VWS V14.01,2013-09-24 23:59:00,
2013-09-24 20:00:00,75.8,75.8,29.80,North,0,0.0,3.0,100,0.01,,---,1.46,VWS V14.01,2013-09-25 00:00:00,
2013-09-24 20:01:00,75.8,75.8,29.80,North,0,0.0,3.0,100,0.01,,---,1.46,VWS V14.01,2013-09-25 00:01:00,
2013-09-24 20:02:00,75.8,75.8,29.80,North,0,0.0,3.0,100,0.01,,---,1.46,VWS V14.01,2013-09-25 00:02:00,
2013-09-24 20:03:00,75.8,75.8,29.80,North,0,0.0,3.0,100,0.02,,---,1.47,VWS V14.01,2013-09-25 00:03:00,
2013-09-24 20:04:00,75.8,75.8,29.80,North,0,0.0,3.0,100,0.02,,---,1.47,VWS V14.01,2013-09-25 00:04:00,
2013-09-24 20:05:00,75.8,75.8,29.80,North,0,0.0,0.0,100,0.02,,---,1.47,VWS V14.01,2013-09-25 00:05:00,
2013-09-24 20:07:00,75.8,75.8,29.80,North,0,0.0,0.0,100,0.02,,---,1.47,VWS V14.01,2013-09-25 00:07:00,
2013-09-24 20:09:00,75.8,75.8,29.80,North,0,0.0,0.0,100,0.02,,---,1.47,VWS V14.01,2013-09-25 00:09:00,
2013-09-24 20:10:00,75.8,75.8,29.80,North,0,0.0,0.0,100,0.02,,---,1.47,VWS V14.01,2013-09-25 00:10:00,
2013-09-24 20:11:00,75.8,75.8,29.80,North,0,0.0,0.0,100,0.02,,---,1.47,VWS V14.01,2013-09-25 00:11:00,
2013-09-24 20:12:00,75.8,75.8,29.80,North,0,0.0,0.0,100,0.02,,---,1.47,VWS V14.01,2013-09-25 00:12:00,
2013-09-24 20:16:00,75.8,75.8,29.80,North,0,0.0,0.0,100,0.02,,---,1.47,VWS V14.01,2013-09-25 00:16:00,
2013-09-24 20:17:00,75.8,75.8,29.80,North,0,0.0,0.0,100,0.02,,---,1.47,VWS V14.01,2013-09-25 00:17:00,
2013-09-24 20:18:00,75.6,75.6,29.80,North,0,0.0,0.0,100,0.02,,---,1.47,VWS V14.01,2013-09-25 00:18:00,
2013-09-24 20:21:00,75.6,75.6,29.80,North,0,0.0,0.0,100,0.02,,---,1.47,VWS V14.01,2013-09-25 00:21:00,
2013-09-24 20:24:00,75.6,75.6,29.80,North,0,0.0,0.0,100,0.02,,---,1.47,VWS V14.01,2013-09-25 00:24:00,
2013-09-24 20:25:00,75.6,75.6,29.80,North,0,0.0,0.0,100,0.02,,---,1.47,VWS V14.01,2013-09-25 00:25:00,
2013-09-24 20:26:00,75.6,75.6,29.80,North,0,0.0,0.0,100,0.02,,---,1.47,VWS V14.01,2013-09-25 00:26:00,
2013-09-24 20:27:00,75.6,75.6,29.80,North,0,0.0,0.0,100,0.02,,---,1.47,VWS V14.01,2013-09-25 00:27:00,
2013-09-24 20:28:00,75.4,75.4,29.80,North,0,0.0,0.0,100,0.02,,---,1.47,VWS V14.01,2013-09-25 00:28:00,
2013-09-24 20:30:00,75.4,75.4,29.80,North,0,0.0,0.0,100,0.02,,---,1.47,VWS V14.01,2013-09-25 00:30:00,
2013-09-24 20:32:00,75.4,75.4,29.80,North,0,0.0,0.0,100,0.02,,---,1.47,VWS V14.01,2013-09-25 00:32:00,
2013-09-24 20:33:00,75.4,75.4,29.80,North,0,0.0,0.0,100,0.02,,---,1.47,VWS V14.01,2013-09-25 00:33:00,
2013-09-24 20:34:00,75.4,75.4,29.80,North,0,0.0,0.0,100,0.02,,---,1.47,VWS V14.01,2013-09-25 00:34:00,
2013-09-24 20:36:00,75.4,75.4,29.80,North,0,0.0,0.0,100,0.02,,---,1.47,VWS V14.01,2013-09-25 00:36:00,
2013-09-24 20:37:00,75.4,75.4,29.80,North,0,0.0,0.0,100,0.02,,---,1.47,VWS V14.01,2013-09-25 00:37:00,
2013-09-24 20:39:00,75.4,75.4,29.80,North,0,0.0,0.0,100,0.02,,---,1.47,VWS V14.01,2013-09-25 00:39:00,
2013-09-24 20:40:00,75.4,75.4,29.80,North,0,0.0,0.0,100,0.02,,---,1.47,VWS V14.01,2013-09-25 00:40:00,
2013-09-24 20:41:00,75.4,75.4,29.80,North,0,0.0,0.0,100,0.02,,---,1.47,VWS V14.01,2013-09-25 00:41:00,
2013-09-24 20:42:00,75.4,75.4,29.80,North,0,0.0,0.0,100,0.02,,---,1.47,VWS V14.01,2013-09-25 00:42:00,
2013-09-24 20:45:00,75.3,75.3,29.80,North,0,0.0,0.0,100,0.02,,---,1.47,VWS V14.01,2013-09-25 00:45:00,
2013-09-24 20:47:00,75.3,75.3,29.80,North,0,0.0,0.0,100,0.02,,---,1.47,VWS V14.01,2013-09-25 00:47:00,
2013-09-24 20:48:00,75.3,75.3,29.80,North,0,0.0,0.0,100,0.02,,---,1.47,VWS V14.01,2013-09-25 00:48:00,
2013-09-24 20:49:00,75.3,75.3,29.80,North,0,0.0,0.0,100,0.02,,---,1.47,VWS V14.01,2013-09-25 00:49:00,
2013-09-24 20:50:00,75.3,75.3,29.80,North,0,0.0,0.0,100,0.02,,---,1.47,VWS V14.01,2013-09-25 00:50:00,
2013-09-24 20:53:00,75.3,75.3,29.80,North,0,0.0,0.0,100,0.02,,---,1.47,VWS V14.01,2013-09-25 00:53:00,
2013-09-24 20:54:00,75.3,75.3,29.80,North,0,0.0,0.0,100,0.02,,---,1.47,VWS V14.01,2013-09-25 00:54:00,
2013-09-24 20:57:00,75.3,75.3,29.80,North,0,0.0,0.0,100,0.02,,---,1.47,VWS V14.01,2013-09-25 00:57:00,
2013-09-24 20:58:00,75.3,75.3,29.80,North,0,0.0,0.0,100,0.02,,---,1.47,VWS V14.01,2013-09-25 00:58:00,
2013-09-24 20:59:00,75.3,75.3,29.80,North,0,0.0,0.0,100,0.02,,---,1.47,VWS V14.01,2013-09-25 00:59:00,
2013-09-24 21:02:00,75.3,75.3,29.80,North,0,0.0,0.0,100,0.02,,---,1.47,VWS V14.01,2013-09-25 01:02:00,
2013-09-24 21:03:00,75.3,75.3,29.80,North,0,0.0,0.0,100,0.02,,---,1.47,VWS V14.01,2013-09-25 01:03:00,
2013-09-24 21:04:00,75.3,75.3,29.80,North,0,0.0,0.0,100,0.02,,---,1.47,VWS V14.01,2013-09-25 01:04:00,
2013-09-24 21:08:00,75.3,75.3,29.80,North,0,0.0,0.0,100,0.00,,---,1.47,VWS V14.01,2013-09-25 01:08:00,
2013-09-24 21:09:00,75.3,75.3,29.80,North,0,0.0,0.0,100,0.00,,---,1.47,VWS V14.01,2013-09-25 01:09:00,
2013-09-24 21:11:00,75.3,75.3,29.80,North,0,0.0,0.0,100,0.00,,---,1.47,VWS V14.01,2013-09-25 01:11:00,
2013-09-24 21:13:00,75.3,75.3,29.80,North,0,0.0,0.0,100,0.00,,---,1.47,VWS V14.01,2013-09-25 01:13:00,
2013-09-24 21:14:00,75.3,75.3,29.80,North,0,0.0,0.0,100,0.00,,---,1.47,VWS V14.01,2013-09-25 01:14:00,
2013-09-24 21:16:00,75.3,75.3,29.80,North,0,0.0,0.0,100,0.00,,---,1.47,VWS V14.01,2013-09-25 01:16:00,
2013-09-24 21:17:00,75.1,75.1,29.80,North,0,0.0,0.0,100,0.00,,---,1.47,VWS V14.01,2013-09-25 01:17:00,
2013-09-24 21:18:00,75.1,75.1,29.80,North,0,0.0,0.0,100,0.00,,---,1.47,VWS V14.01,2013-09-25 01:18:00,
2013-09-24 21:19:00,75.1,75.1,29.80,North,0,0.0,0.0,100,0.00,,---,1.47,VWS V14.01,2013-09-25 01:19:00,
2013-09-24 21:20:00,75.1,75.1,29.80,North,0,0.0,0.0,100,0.00,,---,1.47,VWS V14.01,2013-09-25 01:20:00,
2013-09-24 21:21:00,75.1,75.1,29.80,North,0,0.0,0.0,100,0.00,,---,1.47,VWS V14.01,2013-09-25 01:21:00,
2013-09-24 21:23:00,75.1,75.1,29.80,North,0,0.0,0.0,100,0.00,,---,1.47,VWS V14.01,2013-09-25 01:23:00,
2013-09-24 21:24:00,75.1,75.1,29.80,North,0,0.0,0.0,100,0.00,,---,1.47,VWS V14.01,2013-09-25 01:24:00,
2013-09-24 21:26:00,75.1,75.1,29.80,North,0,0.0,0.0,100,0.00,,---,1.47,VWS V14.01,2013-09-25 01:26:00,
2013-09-24 21:28:00,75.1,75.1,29.80,North,0,0.0,0.0,100,0.01,,---,1.48,VWS V14.01,2013-09-25 01:28:00,
2013-09-24 21:31:00,75.1,75.1,29.80,North,0,0.0,0.0,100,0.01,,---,1.48,VWS V14.01,2013-09-25 01:31:00,
2013-09-24 21:32:00,75.1,75.1,29.80,North,0,0.0,0.0,100,0.01,,---,1.48,VWS V14.01,2013-09-25 01:32:00,
2013-09-24 21:33:00,75.1,75.1,29.80,North,0,0.0,0.0,100,0.01,,---,1.48,VWS V14.01,2013-09-25 01:33:00,
2013-09-24 21:36:00,75.1,75.1,29.80,North,0,0.0,0.0,100,0.01,,---,1.48,VWS V14.01,2013-09-25 01:36:00,
2013-09-24 21:38:00,75.1,75.1,29.80,North,0,0.0,0.0,100,0.01,,---,1.48,VWS V14.01,2013-09-25 01:38:00,
2013-09-24 21:39:00,75.1,75.1,29.80,North,0,0.0,0.0,100,0.01,,---,1.48,VWS V14.01,2013-09-25 01:39:00,
2013-09-24 21:42:00,75.1,75.1,29.80,North,0,0.0,0.0,100,0.01,,---,1.48,VWS V14.01,2013-09-25 01:42:00,
2013-09-24 21:43:00,75.1,75.1,29.80,North,0,0.0,0.0,100,0.01,,---,1.48,VWS V14.01,2013-09-25 01:43:00,
2013-09-24 21:44:00,75.1,75.1,29.80,North,0,0.0,0.0,100,0.01,,---,1.48,VWS V14.01,2013-09-25 01:44:00,
2013-09-24 21:45:00,75.1,75.1,29.80,North,0,0.0,0.0,100,0.01,,---,1.48,VWS V14.01,2013-09-25 01:45:00,
2013-09-24 21:48:00,75.1,75.1,29.80,North,0,0.0,0.0,100,0.01,,---,1.48,VWS V14.01,2013-09-25 01:48:00,
2013-09-24 21:49:00,75.1,75.1,29.80,North,0,0.0,0.0,100,0.01,,---,1.48,VWS V14.01,2013-09-25 01:49:00,
2013-09-24 21:50:00,75.1,75.1,29.80,North,0,0.0,0.0,100,0.01,,---,1.48,VWS V14.01,2013-09-25 01:50:00,
2013-09-24 21:51:00,75.1,75.1,29.80,North,0,0.0,0.0,100,0.01,,---,1.48,VWS V14.01,2013-09-25 01:51:00,
2013-09-24 21:55:00,75.1,75.1,29.80,North,0,0.0,0.0,100,0.01,,---,1.48,VWS V14.01,2013-09-25 01:55:00,
2013-09-24 21:56:00,75.1,75.1,29.80,North,0,0.0,0.0,100,0.01,,---,1.48,VWS V14.01,2013-09-25 01:56:00,
2013-09-24 21:57:00,75.1,75.1,29.80,North,0,0.0,0.0,100,0.01,,---,1.48,VWS V14.01,2013-09-25 01:57:00,
2013-09-24 22:00:00,74.9,74.9,29.80,North,0,0.0,0.0,100,0.01,,---,1.48,VWS V14.01,2013-09-25 02:00:00,
2013-09-24 22:01:00,74.9,74.9,29.80,North,0,0.0,0.0,100,0.01,,---,1.48,VWS V14.01,2013-09-25 02:01:00,
2013-09-24 22:02:00,74.9,74.9,29.80,North,0,0.0,0.0,100,0.01,,---,1.48,VWS V14.01,2013-09-25 02:02:00,
2013-09-24 22:04:00,74.9,74.9,29.80,North,0,0.0,0.0,100,0.01,,---,1.48,VWS V14.01,2013-09-25 02:04:00,
2013-09-24 22:05:00,74.9,74.9,29.80,North,0,0.0,0.0,100,0.01,,---,1.48,VWS V14.01,2013-09-25 02:05:00,
2013-09-24 22:06:00,74.9,74.9,29.80,North,0,0.0,0.0,100,0.01,,---,1.48,VWS V14.01,2013-09-25 02:06:00,
2013-09-24 22:07:00,74.9,74.9,29.80,North,0,0.0,0.0,100,0.01,,---,1.48,VWS V14.01,2013-09-25 02:07:00,
2013-09-24 22:09:00,74.9,74.9,29.80,North,0,0.0,0.0,100,0.01,,---,1.48,VWS V14.01,2013-09-25 02:09:00,
2013-09-24 22:11:00,74.9,74.9,29.80,North,0,0.0,0.0,100,0.01,,---,1.48,VWS V14.01,2013-09-25 02:11:00,
2013-09-24 22:12:00,74.9,74.9,29.80,North,0,0.0,0.0,100,0.01,,---,1.48,VWS V14.01,2013-09-25 02:12:00,
2013-09-24 22:13:00,74.9,74.9,29.80,North,0,0.0,0.0,100,0.01,,---,1.48,VWS V14.01,2013-09-25 02:13:00,
2013-09-24 22:15:00,74.9,74.9,29.80,North,0,0.0,0.0,100,0.01,,---,1.48,VWS V14.01,2013-09-25 02:15:00,
2013-09-24 22:16:00,74.9,74.9,29.80,North,0,0.0,0.0,100,0.01,,---,1.48,VWS V14.01,2013-09-25 02:16:00,
2013-09-24 22:17:00,74.9,74.9,29.80,North,0,0.0,0.0,100,0.01,,---,1.48,VWS V14.01,2013-09-25 02:17:00,
2013-09-24 22:18:00,74.9,74.9,29.80,North,0,0.0,0.0,100,0.01,,---,1.48,VWS V14.01,2013-09-25 02:18:00,
2013-09-24 22:20:00,74.9,74.9,29.80,North,0,0.0,0.0,100,0.01,,---,1.48,VWS V14.01,2013-09-25 02:20:00,
2013-09-24 22:21:00,74.9,74.9,29.80,North,0,0.0,0.0,100,0.01,,---,1.48,VWS V14.01,2013-09-25 02:21:00,
2013-09-24 22:23:00,74.9,74.9,29.80,North,0,0.0,0.0,100,0.01,,---,1.48,VWS V14.01,2013-09-25 02:23:00,
2013-09-24 22:25:00,74.9,74.9,29.80,North,0,0.0,0.0,100,0.01,,---,1.48,VWS V14.01,2013-09-25 02:25:00,
2013-09-24 22:26:00,74.9,74.9,29.80,North,0,0.0,0.0,100,0.01,,---,1.48,VWS V14.01,2013-09-25 02:26:00,
2013-09-24 22:28:00,74.9,74.9,29.80,North,0,0.0,0.0,100,0.01,,---,1.48,VWS V14.01,2013-09-25 02:28:00,
2013-09-24 22:30:00,74.9,74.9,29.80,North,0,0.0,0.0,100,0.01,,---,1.48,VWS V14.01,2013-09-25 02:30:00,
2013-09-24 22:31:00,74.9,74.9,29.80,North,0,0.0,0.0,100,0.01,,---,1.48,VWS V14.01,2013-09-25 02:31:00,
2013-09-24 22:32:00,74.9,74.9,29.80,North,0,0.0,0.0,100,0.01,,---,1.48,VWS V14.01,2013-09-25 02:32:00,
2013-09-24 22:33:00,74.9,74.9,29.80,North,0,0.0,0.0,100,0.01,,---,1.48,VWS V14.01,2013-09-25 02:33:00,
2013-09-24 22:36:00,74.9,74.9,29.80,North,0,0.0,0.0,100,0.01,,---,1.48,VWS V14.01,2013-09-25 02:36:00,
2013-09-24 22:39:00,74.9,74.9,29.80,North,0,0.0,0.0,100,0.01,,---,1.48,VWS V14.01,2013-09-25 02:39:00,
2013-09-24 22:40:00,74.9,74.9,29.80,North,0,0.0,0.0,100,0.01,,---,1.48,VWS V14.01,2013-09-25 02:40:00,
2013-09-24 22:41:00,74.9,74.9,29.80,North,0,0.0,0.0,100,0.01,,---,1.48,VWS V14.01,2013-09-25 02:41:00,
2013-09-24 22:42:00,74.9,74.9,29.80,North,0,0.0,0.0,100,0.01,,---,1.48,VWS V14.01,2013-09-25 02:42:00,
2013-09-24 22:44:00,74.9,74.9,29.80,North,0,0.0,0.0,100,0.01,,---,1.48,VWS V14.01,2013-09-25 02:44:00,
2013-09-24 22:45:00,74.9,74.9,29.80,North,0,0.0,0.0,100,0.01,,---,1.48,VWS V14.01,2013-09-25 02:45:00,
2013-09-24 22:47:00,74.9,74.9,29.80,North,0,0.0,0.0,100,0.01,,---,1.48,VWS V14.01,2013-09-25 02:47:00,
2013-09-24 22:48:00,74.9,74.9,29.80,North,0,0.0,0.0,100,0.01,,---,1.48,VWS V14.01,2013-09-25 02:48:00,
2013-09-24 22:49:00,74.9,74.9,29.80,North,0,0.0,0.0,100,0.01,,---,1.48,VWS V14.01,2013-09-25 02:49:00,
2013-09-24 22:50:00,74.9,74.9,29.80,North,0,0.0,0.0,100,0.01,,---,1.48,VWS V14.01,2013-09-25 02:50:00,
2013-09-24 22:52:00,74.9,74.9,29.80,North,0,0.0,0.0,100,0.01,,---,1.48,VWS V14.01,2013-09-25 02:52:00,
2013-09-24 22:53:00,74.9,74.9,29.80,North,0,0.0,0.0,100,0.01,,---,1.48,VWS V14.01,2013-09-25 02:53:00,
2013-09-24 22:56:00,74.9,74.9,29.80,North,0,0.0,0.0,100,0.01,,---,1.48,VWS V14.01,2013-09-25 02:56:00,
2013-09-24 22:57:00,74.9,74.9,29.80,North,0,0.0,0.0,100,0.01,,---,1.48,VWS V14.01,2013-09-25 02:57:00,
2013-09-24 22:59:00,74.7,74.7,29.80,North,0,0.0,0.0,100,0.01,,---,1.48,VWS V14.01,2013-09-25 02:59:00,
2013-09-24 23:01:00,74.7,74.7,29.80,North,0,0.0,0.0,100,0.01,,---,1.48,VWS V14.01,2013-09-25 03:01:00,
2013-09-24 23:02:00,74.7,74.7,29.80,North,0,0.0,0.0,100,0.01,,---,1.48,VWS V14.01,2013-09-25 03:02:00,
2013-09-24 23:03:00,74.7,74.7,29.80,North,0,0.0,0.0,100,0.01,,---,1.48,VWS V14.01,2013-09-25 03:03:00,
2013-09-24 23:05:00,74.7,74.7,29.80,North,0,0.0,0.0,100,0.00,,---,1.48,VWS V14.01,2013-09-25 03:05:00,
2013-09-24 23:08:00,74.7,74.7,29.80,North,0,0.0,0.0,100,0.00,,---,1.48,VWS V14.01,2013-09-25 03:08:00,
2013-09-24 23:09:00,74.7,74.7,29.80,North,0,0.0,0.0,100,0.00,,---,1.48,VWS V14.01,2013-09-25 03:09:00,
2013-09-24 23:10:00,74.7,74.7,29.80,North,0,0.0,0.0,100,0.00,,---,1.48,VWS V14.01,2013-09-25 03:10:00,
2013-09-24 23:15:00,74.7,74.7,29.80,North,0,0.0,0.0,100,0.00,,---,1.48,VWS V14.01,2013-09-25 03:15:00,
2013-09-24 23:16:00,74.6,74.6,29.80,North,0,0.0,0.0,100,0.00,,---,1.48,VWS V14.01,2013-09-25 03:16:00,
2013-09-24 23:17:00,74.6,74.6,29.80,North,0,0.0,0.0,100,0.00,,---,1.48,VWS V14.01,2013-09-25 03:17:00,
2013-09-24 23:20:00,74.6,74.6,29.80,North,0,0.0,0.0,100,0.00,,---,1.48,VWS V14.01,2013-09-25 03:20:00,
2013-09-24 23:21:00,74.6,74.6,29.80,North,0,0.0,0.0,100,0.00,,---,1.48,VWS V14.01,2013-09-25 03:21:00,
2013-09-24 23:24:00,74.6,74.6,29.80,North,0,0.0,0.0,100,0.00,,---,1.48,VWS V14.01,2013-09-25 03:24:00,
2013-09-24 23:25:00,74.7,74.7,29.80,North,0,0.0,0.0,100,0.00,,---,1.48,VWS V14.01,2013-09-25 03:25:00,
2013-09-24 23:26:00,74.7,74.7,29.80,North,0,0.0,0.0,100,0.00,,---,1.48,VWS V14.01,2013-09-25 03:26:00,
2013-09-24 23:27:00,74.7,74.7,29.80,North,0,0.0,0.0,100,0.00,,---,1.48,VWS V14.01,2013-09-25 03:27:00,
2013-09-24 23:31:00,74.7,74.7,29.80,North,0,0.0,0.0,100,0.00,,---,1.48,VWS V14.01,2013-09-25 03:31:00,
2013-09-24 23:33:00,74.7,74.7,29.80,North,0,0.0,0.0,100,0.00,,---,1.48,VWS V14.01,2013-09-25 03:33:00,
2013-09-24 23:35:00,74.7,74.7,29.78,North,0,0.0,0.0,100,0.00,,---,1.48,VWS V14.01,2013-09-25 03:35:00,
2013-09-24 23:36:00,74.7,74.7,29.78,North,0,0.0,0.0,100,0.00,,---,1.48,VWS V14.01,2013-09-25 03:36:00,
2013-09-24 23:37:00,74.7,74.7,29.78,North,0,0.0,0.0,100,0.00,,---,1.48,VWS V14.01,2013-09-25 03:37:00,
2013-09-24 23:38:00,74.7,74.7,29.78,North,0,0.0,0.0,100,0.00,,---,1.48,VWS V14.01,2013-09-25 03:38:00,
2013-09-24 23:40:00,74.9,74.9,29.78,North,0,0.0,0.0,100,0.00,,---,1.48,VWS V14.01,2013-09-25 03:40:00,
2013-09-24 23:41:00,74.9,74.9,29.78,North,0,0.0,0.0,100,0.00,,---,1.48,VWS V14.01,2013-09-25 03:41:00,
2013-09-24 23:42:00,74.9,74.9,29.78,North,0,0.0,0.0,100,0.00,,---,1.48,VWS V14.01,2013-09-25 03:42:00,
2013-09-24 23:43:00,74.9,74.9,29.78,North,0,0.0,0.0,100,0.00,,---,1.48,VWS V14.01,2013-09-25 03:43:00,
2013-09-24 23:46:00,74.9,74.9,29.78,North,0,0.0,0.0,100,0.00,,---,1.48,VWS V14.01,2013-09-25 03:46:00,
2013-09-24 23:48:00,75.1,75.1,29.78,North,0,0.0,0.0,100,0.00,,---,1.48,VWS V14.01,2013-09-25 03:48:00,
2013-09-24 23:49:00,75.1,75.1,29.78,North,0,0.0,0.0,100,0.00,,---,1.48,VWS V14.01,2013-09-25 03:49:00,
2013-09-24 23:50:00,75.1,75.1,29.78,North,0,0.0,0.0,100,0.00,,---,1.48,VWS V14.01,2013-09-25 03:50:00,
2013-09-24 23:54:00,75.3,75.3,29.78,North,0,0.0,1.0,100,0.00,,---,1.48,VWS V14.01,2013-09-25 03:54:00,
2013-09-24 23:55:00,75.3,75.3,29.78,North,0,0.0,1.0,100,0.00,,---,1.48,VWS V14.01,2013-09-25 03:55:00,
2013-09-24 23:57:00,75.3,75.3,29.78,North,0,0.0,1.0,100,0.00,,---,1.48,VWS V14.01,2013-09-25 03:57:00,
2013-09-24 23:59:00,75.3,75.3,29.78,North,0,0.0,1.0,100,0.00,,---,1.48,VWS V14.01,2013-09-25 03:59:00,